Time,TemperatureF,DewpointF,PressureIn,WindDirection,WindDirectionDegrees,WindSpeedMPH,WindSpeedGustMPH,Humidity,HourlyPrecipIn,Conditions,Clouds,dailyrainin,SoftwareType,DateUTC
2013-02-21 00:00:00,14.5,-22.4,30.26,NW,315,9.0,13.0,17,0.00,,,0.00,meteohub,2013-02-21 05:00:00,
2013-02-21 00:01:00,14.5,-22.4,30.26,NW,315,9.0,13.0,17,0.00,,,0.00,meteohub,2013-02-21 05:01:00,
2013-02-21 00:05:00,14.5,-22.4,30.26,NW,315,9.0,11.0,17,0.00,,,0.00,meteohub,2013-02-21 05:05:00,
2013-02-21 00:06:00,14.5,-22.4,30.26,NW,315,9.0,11.0,17,0.00,,,0.00,meteohub,2013-02-21 05:06:00,
2013-02-21 00:10:00,14.4,-21.5,30.26,West,270,7.0,11.0,18,0.00,,,0.00,meteohub,2013-02-21 05:10:00,
2013-02-21 00:11:00,14.4,-21.5,30.26,West,270,7.0,11.0,18,0.00,,,0.00,meteohub,2013-02-21 05:11:00,
2013-02-21 00:14:00,14.4,-21.5,30.26,NW,315,5.0,11.0,18,0.00,,,0.00,meteohub,2013-02-21 05:14:00,
2013-02-21 00:16:00,14.2,-20.6,30.26,NW,315,12.0,12.0,19,0.00,,,0.00,meteohub,2013-02-21 05:16:00,
2013-02-21 00:20:00,14.2,-20.6,30.26,NW,315,7.0,9.0,19,0.00,,,0.00,meteohub,2013-02-21 05:20:00,
2013-02-21 00:21:00,14.2,-20.6,30.26,NW,315,8.0,12.0,19,0.00,,,0.00,meteohub,2013-02-21 05:21:00,
2013-02-21 00:25:00,14.2,-19.5,30.26,West,270,4.0,12.0,20,0.00,,,0.00,meteohub,2013-02-21 05:25:00,
2013-02-21 00:27:00,14.2,-19.5,30.26,NW,315,2.0,12.0,20,0.00,,,0.00,meteohub,2013-02-21 05:27:00,
2013-02-21 00:28:00,14.2,-19.5,30.26,NW,315,2.0,12.0,20,0.00,,,0.00,meteohub,2013-02-21 05:28:00,
2013-02-21 00:31:00,14.0,-19.7,30.26,NW,315,3.0,12.0,20,0.00,,,0.00,meteohub,2013-02-21 05:31:00,
2013-02-21 00:33:00,14.0,-19.7,30.26,NW,315,6.0,12.0,20,0.00,,,0.00,meteohub,2013-02-21 05:33:00,
2013-02-21 00:36:00,14.0,-18.8,30.26,WSW,248,7.0,8.0,21,0.00,,,0.00,meteohub,2013-02-21 05:36:00,
2013-02-21 00:37:00,14.0,-18.8,30.26,West,270,6.0,8.0,21,0.00,,,0.00,meteohub,2013-02-21 05:37:00,
2013-02-21 00:38:00,14.0,-18.8,30.25,NW,315,6.0,8.0,21,0.00,,,0.00,meteohub,2013-02-21 05:38:00,
2013-02-21 00:39:00,14.0,-18.8,30.26,North,0,6.0,8.0,21,0.00,,,0.00,meteohub,2013-02-21 05:39:00,
2013-02-21 00:42:00,14.2,-18.6,30.26,West,270,3.0,8.0,21,0.00,,,0.00,meteohub,2013-02-21 05:42:00,
2013-02-21 00:43:00,14.2,-18.6,30.26,NW,315,3.0,8.0,21,0.00,,,0.00,meteohub,2013-02-21 05:43:00,
2013-02-21 00:44:00,14.2,-18.6,30.26,NW,315,4.0,8.0,21,0.00,,,0.00,meteohub,2013-02-21 05:44:00,
2013-02-21 00:48:00,14.2,-17.7,30.26,West,270,2.0,8.0,22,0.00,,,0.00,meteohub,2013-02-21 05:48:00,
2013-02-21 00:49:00,14.2,-17.7,30.25,West,270,9.0,9.0,22,0.00,,,0.00,meteohub,2013-02-21 05:49:00,
2013-02-21 00:52:00,14.2,-17.7,30.25,WSW,248,2.0,7.0,22,0.00,,,0.00,meteohub,2013-02-21 05:52:00,
2013-02-21 00:53:00,14.2,-17.7,30.26,West,270,4.0,7.0,22,0.00,,,0.00,meteohub,2013-02-21 05:53:00,
2013-02-21 00:54:00,14.2,-17.7,30.26,West,270,8.0,8.0,22,0.00,,,0.00,meteohub,2013-02-21 05:54:00,
2013-02-21 00:55:00,14.2,-17.7,30.26,West,270,8.0,8.0,22,0.00,,,0.00,meteohub,2013-02-21 05:55:00,
2013-02-21 00:58:00,14.2,-17.7,30.25,West,270,5.0,9.0,22,0.00,,,0.00,meteohub,2013-02-21 05:58:00,
2013-02-21 00:59:00,14.2,-16.8,30.25,West,270,6.0,9.0,23,0.00,,,0.00,meteohub,2013-02-21 05:59:00,
2013-02-21 01:00:00,14.2,-16.8,30.25,West,270,6.0,9.0,23,0.00,,,0.00,meteohub,2013-02-21 06:00:00,
2013-02-21 01:01:00,14.2,-16.8,30.25,West,270,6.0,9.0,23,0.00,,,0.00,meteohub,2013-02-21 06:01:00,
2013-02-21 01:03:00,14.2,-16.8,30.25,West,270,6.0,9.0,23,0.00,,,0.00,meteohub,2013-02-21 06:03:00,
2013-02-21 01:05:00,14.2,-16.8,30.25,West,270,6.0,9.0,23,0.00,,,0.00,meteohub,2013-02-21 06:05:00,
2013-02-21 01:06:00,14.2,-16.8,30.25,West,270,6.0,8.0,23,0.00,,,0.00,meteohub,2013-02-21 06:06:00,
2013-02-21 01:09:00,14.2,-16.8,30.25,NW,315,7.0,8.0,23,0.00,,,0.00,meteohub,2013-02-21 06:09:00,
2013-02-21 01:10:00,14.2,-16.8,30.25,WNW,293,6.0,8.0,23,0.00,,,0.00,meteohub,2013-02-21 06:10:00,
2013-02-21 01:11:00,14.2,-16.8,30.25,WSW,248,4.0,8.0,23,0.00,,,0.00,meteohub,2013-02-21 06:11:00,
2013-02-21 01:14:00,14.4,-15.9,30.25,NW,315,4.0,8.0,24,0.00,,,0.00,meteohub,2013-02-21 06:14:00,
2013-02-21 01:15:00,14.4,-15.9,30.25,South,180,4.0,8.0,24,0.00,,,0.00,meteohub,2013-02-21 06:15:00,
2013-02-21 01:16:00,14.4,-15.9,30.25,NW,315,11.0,11.0,24,0.00,,,0.00,meteohub,2013-02-21 06:16:00,
2013-02-21 01:17:00,14.4,-15.9,30.25,NW,315,5.0,7.0,24,0.00,,,0.00,meteohub,2013-02-21 06:17:00,
2013-02-21 01:20:00,14.4,-15.9,30.25,NW,315,4.0,7.0,24,0.00,,,0.00,meteohub,2013-02-21 06:20:00,
2013-02-21 01:21:00,14.4,-15.9,30.25,West,270,8.0,11.0,24,0.00,,,0.00,meteohub,2013-02-21 06:21:00,
2013-02-21 01:23:00,14.4,-15.9,30.25,West,270,11.0,11.0,24,0.00,,,0.00,meteohub,2013-02-21 06:23:00,
2013-02-21 01:25:00,14.4,-16.6,30.25,NW,315,11.0,11.0,23,0.00,,,0.00,meteohub,2013-02-21 06:25:00,
2013-02-21 01:26:00,14.4,-16.6,30.25,West,270,5.0,11.0,23,0.00,,,0.00,meteohub,2013-02-21 06:26:00,
2013-02-21 01:27:00,14.4,-16.6,30.26,North,0,16.0,16.0,23,0.00,,,0.00,meteohub,2013-02-21 06:27:00,
2013-02-21 01:29:00,14.4,-16.6,30.26,WSW,248,11.0,11.0,23,0.00,,,0.00,meteohub,2013-02-21 06:29:00,
2013-02-21 01:31:00,14.4,-16.6,30.26,West,270,2.0,16.0,23,0.00,,,0.00,meteohub,2013-02-21 06:31:00,
2013-02-21 01:32:00,14.4,-16.6,30.25,West,270,10.0,16.0,23,0.00,,,0.00,meteohub,2013-02-21 06:32:00,
2013-02-21 01:34:00,14.4,-16.6,30.26,WSW,248,4.0,16.0,23,0.00,,,0.00,meteohub,2013-02-21 06:34:00,
2013-02-21 01:36:00,14.4,-17.5,30.26,South,180,7.0,16.0,22,0.00,,,0.00,meteohub,2013-02-21 06:36:00,
2013-02-21 01:38:00,14.4,-17.5,30.26,West,270,8.0,16.0,22,0.00,,,0.00,meteohub,2013-02-21 06:38:00,
2013-02-21 01:39:00,14.2,-17.7,30.26,West,270,10.0,16.0,22,0.00,,,0.00,meteohub,2013-02-21 06:39:00,
2013-02-21 01:42:00,14.2,-17.7,30.26,West,270,8.0,16.0,22,0.00,,,0.00,meteohub,2013-02-21 06:42:00,
2013-02-21 01:43:00,14.2,-18.6,30.26,WSW,248,3.0,16.0,21,0.00,,,0.00,meteohub,2013-02-21 06:43:00,
2013-02-21 01:45:00,14.2,-18.6,30.26,West,270,2.0,13.0,21,0.00,,,0.00,meteohub,2013-02-21 06:45:00,
2013-02-21 01:47:00,14.2,-18.6,30.26,NW,315,5.0,13.0,21,0.00,,,0.00,meteohub,2013-02-21 06:47:00,
2013-02-21 01:49:00,14.2,-18.6,30.26,NW,315,4.0,13.0,21,0.00,,,0.00,meteohub,2013-02-21 06:49:00,
2013-02-21 01:52:00,14.2,-18.6,30.26,WSW,248,6.0,13.0,21,0.00,,,0.00,meteohub,2013-02-21 06:52:00,
2013-02-21 01:53:00,14.2,-18.6,30.26,NW,315,2.0,13.0,21,0.00,,,0.00,meteohub,2013-02-21 06:53:00,
2013-02-21 01:54:00,14.2,-19.5,30.26,North,0,5.0,13.0,20,0.00,,,0.00,meteohub,2013-02-21 06:54:00,
2013-02-21 01:58:00,14.2,-19.5,30.25,North,0,8.0,13.0,20,0.00,,,0.00,meteohub,2013-02-21 06:58:00,
2013-02-21 01:59:00,14.2,-19.5,30.26,West,270,8.0,13.0,20,0.00,,,0.00,meteohub,2013-02-21 06:59:00,
2013-02-21 02:00:00,14.4,-19.5,30.26,NW,315,6.0,13.0,20,0.00,,,0.00,meteohub,2013-02-21 07:00:00,
2013-02-21 02:03:00,14.4,-19.5,30.26,NW,315,6.0,8.0,20,0.00,,,0.00,meteohub,2013-02-21 07:03:00,
2013-02-21 02:04:00,14.4,-19.5,30.25,NW,315,6.0,8.0,20,0.00,,,0.00,meteohub,2013-02-21 07:04:00,
2013-02-21 02:05:00,14.4,-19.5,30.26,NW,315,6.0,8.0,20,0.00,,,0.00,meteohub,2013-02-21 07:05:00,
2013-02-21 02:08:00,14.2,-19.5,30.26,WSW,248,3.0,8.0,20,0.00,,,0.00,meteohub,2013-02-21 07:08:00,
2013-02-21 02:10:00,14.2,-19.5,30.25,NW,315,3.0,8.0,20,0.00,,,0.00,meteohub,2013-02-21 07:10:00,
2013-02-21 02:12:00,14.2,-19.5,30.26,South,180,4.0,8.0,20,0.00,,,0.00,meteohub,2013-02-21 07:12:00,
2013-02-21 02:14:00,14.2,-19.5,30.25,West,270,9.0,9.0,20,0.00,,,0.00,meteohub,2013-02-21 07:14:00,
2013-02-21 02:15:00,14.2,-19.5,30.25,NW,315,13.0,13.0,20,0.00,,,0.00,meteohub,2013-02-21 07:15:00,
2013-02-21 02:17:00,14.2,-20.6,30.26,WSW,248,8.0,8.0,19,0.00,,,0.00,meteohub,2013-02-21 07:17:00,
2013-02-21 02:19:00,14.2,-20.6,30.26,West,270,5.0,8.0,19,0.00,,,0.00,meteohub,2013-02-21 07:19:00,
2013-02-21 02:20:00,14.2,-20.6,30.25,NW,315,4.0,8.0,19,0.00,,,0.00,meteohub,2013-02-21 07:20:00,
2013-02-21 02:22:00,14.4,-21.5,30.26,North,0,5.0,13.0,18,0.00,,,0.00,meteohub,2013-02-21 07:22:00,
2013-02-21 02:25:00,14.4,-22.5,30.26,West,270,8.0,13.0,17,0.00,,,0.00,meteohub,2013-02-21 07:25:00,
2013-02-21 02:27:00,14.4,-22.5,30.25,ENE,68,6.0,13.0,17,0.00,,,0.00,meteohub,2013-02-21 07:27:00,
2013-02-21 02:30:00,14.5,-23.4,30.26,West,270,9.0,13.0,16,0.00,,,0.00,meteohub,2013-02-21 07:30:00,
2013-02-21 02:31:00,14.5,-23.4,30.26,West,270,7.0,10.0,16,0.00,,,0.00,meteohub,2013-02-21 07:31:00,
2013-02-21 02:32:00,14.5,-24.7,30.25,West,270,4.0,10.0,15,0.00,,,0.00,meteohub,2013-02-21 07:32:00,
2013-02-21 02:36:00,14.9,-25.8,30.26,NW,315,10.0,10.0,14,0.00,,,0.00,meteohub,2013-02-21 07:36:00,
2013-02-21 02:37:00,14.5,-26.0,30.25,South,180,4.0,10.0,14,0.00,,,0.00,meteohub,2013-02-21 07:37:00,
2013-02-21 02:41:00,14.7,-28.7,30.26,West,270,8.0,18.0,12,0.00,,,0.00,meteohub,2013-02-21 07:41:00,
2013-02-21 02:42:00,14.7,-28.7,30.25,WSW,248,4.0,18.0,12,0.00,,,0.00,meteohub,2013-02-21 07:42:00,
2013-02-21 02:43:00,14.7,-28.7,30.25,NW,315,11.0,18.0,12,0.00,,,0.00,meteohub,2013-02-21 07:43:00,
2013-02-21 02:47:00,14.7,-30.3,30.26,NW,315,8.0,18.0,11,0.00,,,0.00,meteohub,2013-02-21 07:47:00,
2013-02-21 02:48:00,14.7,-30.3,30.26,NW,315,8.0,18.0,11,0.00,,,0.00,meteohub,2013-02-21 07:48:00,
2013-02-21 02:52:00,14.7,-30.3,30.25,West,270,2.0,18.0,11,0.00,,,0.00,meteohub,2013-02-21 07:52:00,
2013-02-21 02:53:00,14.7,-30.3,30.25,NW,315,11.0,18.0,11,0.00,,,0.00,meteohub,2013-02-21 07:53:00,
2013-02-21 02:57:00,14.7,-32.1,30.26,NW,315,3.0,18.0,10,0.00,,,0.00,meteohub,2013-02-21 07:57:00,
2013-02-21 02:59:00,14.7,-30.3,30.25,NE,45,11.0,18.0,11,0.00,,,0.00,meteohub,2013-02-21 07:59:00,
2013-02-21 03:00:00,14.7,-30.3,30.25,NE,45,11.0,18.0,11,0.00,,,0.00,meteohub,2013-02-21 08:00:00,
2013-02-21 03:02:00,14.7,-30.3,30.25,NE,45,11.0,18.0,11,0.00,,,0.00,meteohub,2013-02-21 08:02:00,
2013-02-21 03:04:00,14.7,-30.3,30.26,NE,45,11.0,18.0,11,0.00,,,0.00,meteohub,2013-02-21 08:04:00,
2013-02-21 03:05:00,14.7,-30.3,30.26,NE,45,11.0,18.0,11,0.00,,,0.00,meteohub,2013-02-21 08:05:00,
2013-02-21 03:06:00,14.7,-30.3,30.25,NE,45,11.0,18.0,11,0.00,,,0.00,meteohub,2013-02-21 08:06:00,
2013-02-21 03:07:00,14.7,-30.3,30.26,SE,135,5.0,18.0,11,0.00,,,0.00,meteohub,2013-02-21 08:07:00,
2013-02-21 03:09:00,14.7,-28.7,30.25,South,180,11.0,18.0,12,0.00,,,0.00,meteohub,2013-02-21 08:09:00,
2013-02-21 03:10:00,14.7,-28.7,30.25,South,180,11.0,18.0,12,0.00,,,0.00,meteohub,2013-02-21 08:10:00,
2013-02-21 03:12:00,14.7,-28.7,30.25,NW,315,3.0,11.0,12,0.00,,,0.00,meteohub,2013-02-21 08:12:00,
2013-02-21 03:15:00,14.7,-27.2,30.25,WSW,248,5.0,11.0,13,0.00,,,0.00,meteohub,2013-02-21 08:15:00,
2013-02-21 03:16:00,14.7,-27.2,30.26,WSW,248,4.0,11.0,13,0.00,,,0.00,meteohub,2013-02-21 08:16:00,
2013-02-21 03:17:00,14.7,-27.2,30.26,West,270,5.0,11.0,13,0.00,,,0.00,meteohub,2013-02-21 08:17:00,
2013-02-21 03:18:00,14.7,-27.2,30.26,West,270,5.0,11.0,13,0.00,,,0.00,meteohub,2013-02-21 08:18:00,
2013-02-21 03:21:00,14.7,-27.2,30.25,West,270,5.0,14.0,13,0.00,,,0.00,meteohub,2013-02-21 08:21:00,
2013-02-21 03:22:00,14.7,-27.2,30.25,NW,315,14.0,14.0,13,0.00,,,0.00,meteohub,2013-02-21 08:22:00,
2013-02-21 03:23:00,14.7,-27.2,30.26,West,270,8.0,14.0,13,0.00,,,0.00,meteohub,2013-02-21 08:23:00,
2013-02-21 03:26:00,14.7,-27.2,30.26,NW,315,11.0,14.0,13,0.00,,,0.00,meteohub,2013-02-21 08:26:00,
2013-02-21 03:27:00,14.7,-28.7,30.26,West,270,7.0,14.0,12,0.00,,,0.00,meteohub,2013-02-21 08:27:00,
2013-02-21 03:28:00,14.7,-27.2,30.26,WSW,248,4.0,14.0,13,0.00,,,0.00,meteohub,2013-02-21 08:28:00,
2013-02-21 03:32:00,14.7,-27.2,30.25,NE,45,10.0,14.0,13,0.00,,,0.00,meteohub,2013-02-21 08:32:00,
2013-02-21 03:33:00,14.7,-27.2,30.25,WSW,248,11.0,14.0,13,0.00,,,0.00,meteohub,2013-02-21 08:33:00,
2013-02-21 03:36:00,14.7,-28.7,30.26,NW,315,6.0,14.0,12,0.00,,,0.00,meteohub,2013-02-21 08:36:00,
2013-02-21 03:38:00,14.7,-27.2,30.25,WSW,248,8.0,14.0,13,0.00,,,0.00,meteohub,2013-02-21 08:38:00,
2013-02-21 03:39:00,14.7,-27.2,30.26,NW,315,5.0,14.0,13,0.00,,,0.00,meteohub,2013-02-21 08:39:00,
2013-02-21 03:42:00,14.7,-27.2,30.26,North,0,8.0,11.0,13,0.00,,,0.00,meteohub,2013-02-21 08:42:00,
2013-02-21 03:43:00,14.7,-27.2,30.26,West,270,5.0,11.0,13,0.00,,,0.00,meteohub,2013-02-21 08:43:00,
2013-02-21 03:44:00,14.7,-27.2,30.26,West,270,3.0,11.0,13,0.00,,,0.00,meteohub,2013-02-21 08:44:00,
2013-02-21 03:47:00,14.7,-27.2,30.26,NW,315,13.0,15.0,13,0.00,,,0.00,meteohub,2013-02-21 08:47:00,
2013-02-21 03:48:00,14.7,-27.2,30.25,NW,315,11.0,15.0,13,0.00,,,0.00,meteohub,2013-02-21 08:48:00,
2013-02-21 03:49:00,14.7,-27.2,30.26,North,0,12.0,15.0,13,0.00,,,0.00,meteohub,2013-02-21 08:49:00,
2013-02-21 03:53:00,14.9,-28.5,30.26,West,270,10.0,15.0,12,0.00,,,0.00,meteohub,2013-02-21 08:53:00,
2013-02-21 03:54:00,14.9,-28.5,30.25,NW,315,9.0,15.0,12,0.00,,,0.00,meteohub,2013-02-21 08:54:00,
2013-02-21 03:59:00,14.9,-27.0,30.26,West,270,4.0,15.0,13,0.00,,,0.00,meteohub,2013-02-21 08:59:00,
2013-02-21 04:00:00,14.9,-27.0,30.26,West,270,4.0,15.0,13,0.00,,,0.00,meteohub,2013-02-21 09:00:00,
2013-02-21 04:01:00,14.9,-27.0,30.26,West,270,4.0,15.0,13,0.00,,,0.00,meteohub,2013-02-21 09:01:00,
2013-02-21 04:05:00,14.9,-27.0,30.26,West,270,4.0,15.0,13,0.00,,,0.00,meteohub,2013-02-21 09:05:00,
2013-02-21 04:06:00,14.9,-27.0,30.26,West,270,4.0,15.0,13,0.00,,,0.00,meteohub,2013-02-21 09:06:00,
2013-02-21 04:07:00,14.9,-27.0,30.26,West,270,4.0,15.0,13,0.00,,,0.00,meteohub,2013-02-21 09:07:00,
2013-02-21 04:10:00,14.9,-27.0,30.26,NW,315,7.0,15.0,13,0.00,,,0.00,meteohub,2013-02-21 09:10:00,
2013-02-21 04:11:00,14.9,-27.0,30.26,WSW,248,7.0,11.0,13,0.00,,,0.00,meteohub,2013-02-21 09:11:00,
2013-02-21 04:12:00,14.9,-27.0,30.26,NW,315,8.0,11.0,13,0.00,,,0.00,meteohub,2013-02-21 09:12:00,
2013-02-21 04:13:00,14.9,-27.0,30.26,NW,315,5.0,11.0,13,0.00,,,0.00,meteohub,2013-02-21 09:13:00,
2013-02-21 04:16:00,14.9,-27.0,30.26,West,270,8.0,14.0,13,0.00,,,0.00,meteohub,2013-02-21 09:16:00,
2013-02-21 04:17:00,14.9,-27.0,30.26,WSW,248,6.0,14.0,13,0.00,,,0.00,meteohub,2013-02-21 09:17:00,
2013-02-21 04:18:00,14.9,-25.8,30.26,NW,315,4.0,14.0,14,0.00,,,0.00,meteohub,2013-02-21 09:18:00,
2013-02-21 04:22:00,14.9,-25.8,30.26,WSW,248,7.0,16.0,14,0.00,,,0.00,meteohub,2013-02-21 09:22:00,
2013-02-21 04:23:00,14.9,-25.8,30.26,WSW,248,8.0,16.0,14,0.00,,,0.00,meteohub,2013-02-21 09:23:00,
2013-02-21 04:28:00,14.9,-24.3,30.26,NW,315,10.0,16.0,15,0.00,,,0.00,meteohub,2013-02-21 09:28:00,
2013-02-21 04:29:00,14.9,-23.3,30.26,West,270,5.0,16.0,16,0.00,,,0.00,meteohub,2013-02-21 09:29:00,
2013-02-21 04:33:00,14.9,-23.3,30.26,NW,315,8.0,16.0,16,0.00,,,0.00,meteohub,2013-02-21 09:33:00,
2013-02-21 04:34:00,14.9,-23.3,30.26,West,270,8.0,16.0,16,0.00,,,0.00,meteohub,2013-02-21 09:34:00,
2013-02-21 04:35:00,14.9,-23.3,30.27,West,270,8.0,12.0,16,0.00,,,0.00,meteohub,2013-02-21 09:35:00,
2013-02-21 04:38:00,14.9,-22.0,30.26,West,270,14.0,14.0,17,0.00,,,0.00,meteohub,2013-02-21 09:38:00,
2013-02-21 04:39:00,14.9,-22.0,30.26,WNW,293,12.0,12.0,17,0.00,,,0.00,meteohub,2013-02-21 09:39:00,
2013-02-21 04:41:00,14.9,-22.0,30.26,West,270,11.0,14.0,17,0.00,,,0.00,meteohub,2013-02-21 09:41:00,
2013-02-21 04:42:00,14.9,-22.0,30.26,North,0,10.0,14.0,17,0.00,,,0.00,meteohub,2013-02-21 09:42:00,
2013-02-21 04:44:00,14.9,-22.0,30.26,WSW,248,9.0,14.0,17,0.00,,,0.00,meteohub,2013-02-21 09:44:00,
2013-02-21 04:45:00,14.9,-22.0,30.26,North,0,11.0,14.0,17,0.00,,,0.00,meteohub,2013-02-21 09:45:00,
2013-02-21 04:46:00,14.9,-22.0,30.26,North,0,4.0,14.0,17,0.00,,,0.00,meteohub,2013-02-21 09:46:00,
2013-02-21 04:47:00,14.9,-23.3,30.26,West,270,3.0,14.0,16,0.00,,,0.00,meteohub,2013-02-21 09:47:00,
2013-02-21 04:50:00,14.9,-22.0,30.27,West,270,11.0,14.0,17,0.00,,,0.00,meteohub,2013-02-21 09:50:00,
2013-02-21 04:52:00,14.9,-23.3,30.26,NW,315,7.0,14.0,16,0.00,,,0.00,meteohub,2013-02-21 09:52:00,
2013-02-21 04:53:00,14.9,-23.3,30.26,NW,315,4.0,14.0,16,0.00,,,0.00,meteohub,2013-02-21 09:53:00,
2013-02-21 04:55:00,14.9,-23.3,30.26,North,0,11.0,14.0,16,0.00,,,0.00,meteohub,2013-02-21 09:55:00,
2013-02-21 04:56:00,14.9,-23.3,30.26,NW,315,11.0,14.0,16,0.00,,,0.00,meteohub,2013-02-21 09:56:00,
2013-02-21 04:59:00,14.9,-23.3,30.26,NW,315,4.0,14.0,16,0.00,,,0.00,meteohub,2013-02-21 09:59:00,
2013-02-21 05:01:00,15.1,-23.1,30.26,NW,315,11.0,14.0,16,0.00,,,0.00,meteohub,2013-02-21 10:01:00,
2013-02-21 05:02:00,15.1,-23.1,30.26,NW,315,11.0,14.0,16,0.00,,,0.00,meteohub,2013-02-21 10:02:00,
2013-02-21 05:04:00,15.1,-23.1,30.26,WSW,248,11.0,14.0,16,0.00,,,0.00,meteohub,2013-02-21 10:04:00,
2013-02-21 05:05:00,15.1,-23.1,30.26,NW,315,7.0,14.0,16,0.00,,,0.00,meteohub,2013-02-21 10:05:00,
2013-02-21 05:07:00,15.1,-23.1,30.26,NW,315,8.0,14.0,16,0.00,,,0.00,meteohub,2013-02-21 10:07:00,
2013-02-21 05:08:00,15.1,-23.1,30.26,West,270,11.0,14.0,16,0.00,,,0.00,meteohub,2013-02-21 10:08:00,
2013-02-21 05:10:00,15.1,-23.1,30.26,South,180,4.0,14.0,16,0.00,,,0.00,meteohub,2013-02-21 10:10:00,
2013-02-21 05:12:00,15.1,-23.1,30.26,West,270,5.0,14.0,16,0.00,,,0.00,meteohub,2013-02-21 10:12:00,
2013-02-21 05:13:00,15.1,-23.1,30.27,West,270,6.0,14.0,16,0.00,,,0.00,meteohub,2013-02-21 10:13:00,
2013-02-21 05:15:00,15.1,-23.1,30.26,WSW,248,2.0,14.0,16,0.00,,,0.00,meteohub,2013-02-21 10:15:00,
2013-02-21 05:16:00,15.1,-23.1,30.27,WSW,248,10.0,11.0,16,0.00,,,0.00,meteohub,2013-02-21 10:16:00,
2013-02-21 05:18:00,15.1,-23.1,30.27,WSW,248,6.0,11.0,16,0.00,,,0.00,meteohub,2013-02-21 10:18:00,
2013-02-21 05:21:00,15.1,-23.1,30.27,West,270,7.0,11.0,16,0.00,,,0.00,meteohub,2013-02-21 10:21:00,
2013-02-21 05:24:00,15.1,-23.1,30.27,West,270,10.0,11.0,16,0.00,,,0.00,meteohub,2013-02-21 10:24:00,
2013-02-21 05:26:00,15.1,-23.1,30.27,West,270,4.0,10.0,16,0.00,,,0.00,meteohub,2013-02-21 10:26:00,
2013-02-21 05:27:00,15.1,-23.1,30.27,West,270,4.0,10.0,16,0.00,,,0.00,meteohub,2013-02-21 10:27:00,
2013-02-21 05:29:00,15.1,-23.1,30.27,NW,315,4.0,10.0,16,0.00,,,0.00,meteohub,2013-02-21 10:29:00,
2013-02-21 05:32:00,15.1,-22.0,30.27,South,180,6.0,10.0,17,0.00,,,0.00,meteohub,2013-02-21 10:32:00,
2013-02-21 05:33:00,15.1,-22.0,30.27,NW,315,9.0,10.0,17,0.00,,,0.00,meteohub,2013-02-21 10:33:00,
2013-02-21 05:34:00,15.1,-22.0,30.27,West,270,6.0,10.0,17,0.00,,,0.00,meteohub,2013-02-21 10:34:00,
2013-02-21 05:37:00,14.9,-22.0,30.27,WSW,248,12.0,12.0,17,0.00,,,0.00,meteohub,2013-02-21 10:37:00,
2013-02-21 05:40:00,14.9,-22.0,30.27,West,270,2.0,13.0,17,0.00,,,0.00,meteohub,2013-02-21 10:40:00,
2013-02-21 05:41:00,14.9,-22.0,30.27,WSW,248,4.0,13.0,17,0.00,,,0.00,meteohub,2013-02-21 10:41:00,
2013-02-21 05:42:00,15.1,-22.0,30.28,WSW,248,11.0,13.0,17,0.00,,,0.00,meteohub,2013-02-21 10:42:00,
2013-02-21 05:43:00,15.1,-22.0,30.28,WSW,248,11.0,13.0,17,0.00,,,0.00,meteohub,2013-02-21 10:43:00,
2013-02-21 05:46:00,15.1,-22.0,30.27,WSW,248,4.0,13.0,17,0.00,,,0.00,meteohub,2013-02-21 10:46:00,
2013-02-21 05:47:00,15.1,-22.0,30.28,WSW,248,4.0,13.0,17,0.00,,,0.00,meteohub,2013-02-21 10:47:00,
2013-02-21 05:48:00,15.1,-22.0,30.27,WSW,248,4.0,13.0,17,0.00,,,0.00,meteohub,2013-02-21 10:48:00,
2013-02-21 05:50:00,15.1,-22.0,30.28,WSW,248,4.0,13.0,17,0.00,,,0.00,meteohub,2013-02-21 10:50:00,
2013-02-21 05:51:00,15.1,-22.0,30.28,WSW,248,4.0,13.0,17,0.00,,,0.00,meteohub,2013-02-21 10:51:00,
2013-02-21 05:53:00,15.1,-22.0,30.28,West,270,6.0,13.0,17,0.00,,,0.00,meteohub,2013-02-21 10:53:00,
2013-02-21 05:56:00,15.1,-22.0,30.28,NW,315,4.0,11.0,17,0.00,,,0.00,meteohub,2013-02-21 10:56:00,
2013-02-21 05:58:00,15.1,-20.7,30.28,West,270,5.0,11.0,18,0.00,,,0.00,meteohub,2013-02-21 10:58:00,
2013-02-21 05:59:00,15.1,-20.7,30.28,WSW,248,5.0,11.0,18,0.00,,,0.00,meteohub,2013-02-21 10:59:00,
2013-02-21 06:01:00,15.1,-20.7,30.28,WSW,248,5.0,6.0,18,0.00,,,0.00,meteohub,2013-02-21 11:01:00,
2013-02-21 06:02:00,15.1,-20.7,30.28,WSW,248,5.0,6.0,18,0.00,,,0.00,meteohub,2013-02-21 11:02:00,
2013-02-21 06:04:00,15.1,-20.7,30.28,WSW,248,5.0,6.0,18,0.00,,,0.00,meteohub,2013-02-21 11:04:00,
2013-02-21 06:05:00,15.1,-20.7,30.28,WSW,248,5.0,6.0,18,0.00,,,0.00,meteohub,2013-02-21 11:05:00,
2013-02-21 06:07:00,15.1,-19.8,30.28,NW,315,2.0,6.0,19,0.00,,,0.00,meteohub,2013-02-21 11:07:00,
2013-02-21 06:08:00,15.1,-19.8,30.28,NW,315,2.0,6.0,19,0.00,,,0.00,meteohub,2013-02-21 11:08:00,
2013-02-21 06:09:00,15.1,-19.8,30.28,NW,315,6.0,6.0,19,0.00,,,0.00,meteohub,2013-02-21 11:09:00,
2013-02-21 06:11:00,15.1,-19.8,30.28,West,270,10.0,10.0,19,0.00,,,0.00,meteohub,2013-02-21 11:11:00,
2013-02-21 06:12:00,15.1,-18.8,30.28,NW,315,15.0,15.0,20,0.00,,,0.00,meteohub,2013-02-21 11:12:00,
2013-02-21 06:14:00,15.1,-18.8,30.28,WSW,248,3.0,5.0,20,0.00,,,0.00,meteohub,2013-02-21 11:14:00,
2013-02-21 06:15:00,15.1,-18.8,30.28,WSW,248,4.0,5.0,20,0.00,,,0.00,meteohub,2013-02-21 11:15:00,
2013-02-21 06:16:00,15.1,-18.8,30.28,West,270,8.0,15.0,20,0.00,,,0.00,meteohub,2013-02-21 11:16:00,
2013-02-21 06:18:00,15.1,-18.8,30.29,West,270,7.0,15.0,20,0.00,,,0.00,meteohub,2013-02-21 11:18:00,
2013-02-21 06:19:00,15.1,-18.8,30.28,SE,135,3.0,15.0,20,0.00,,,0.00,meteohub,2013-02-21 11:19:00,
2013-02-21 06:22:00,15.1,-18.8,30.29,West,270,5.0,15.0,20,0.00,,,0.00,meteohub,2013-02-21 11:22:00,
2013-02-21 06:23:00,15.1,-17.9,30.28,NW,315,8.0,15.0,21,0.00,,,0.00,meteohub,2013-02-21 11:23:00,
2013-02-21 06:24:00,15.1,-17.9,30.28,NW,315,8.0,15.0,21,0.00,,,0.00,meteohub,2013-02-21 11:24:00,
2013-02-21 06:25:00,15.1,-17.9,30.29,NW,315,10.0,15.0,21,0.00,,,0.00,meteohub,2013-02-21 11:25:00,
2013-02-21 06:27:00,15.1,-17.9,30.28,WSW,248,9.0,15.0,21,0.00,,,0.00,meteohub,2013-02-21 11:27:00,
2013-02-21 06:28:00,15.1,-17.9,30.29,West,270,6.0,15.0,21,0.00,,,0.00,meteohub,2013-02-21 11:28:00,
2013-02-21 06:30:00,15.1,-17.9,30.28,NW,315,11.0,13.0,21,0.00,,,0.00,meteohub,2013-02-21 11:30:00,
2013-02-21 06:31:00,15.1,-17.9,30.28,NW,315,11.0,13.0,21,0.00,,,0.00,meteohub,2013-02-21 11:31:00,
2013-02-21 06:32:00,15.1,-17.9,30.28,East,90,11.0,13.0,21,0.00,,,0.00,meteohub,2013-02-21 11:32:00,
2013-02-21 06:34:00,15.1,-17.9,30.29,WSW,248,8.0,13.0,21,0.00,,,0.00,meteohub,2013-02-21 11:34:00,
2013-02-21 06:36:00,15.1,-17.0,30.28,West,270,5.0,13.0,22,0.00,,,0.00,meteohub,2013-02-21 11:36:00,
2013-02-21 06:37:00,15.1,-17.0,30.28,West,270,8.0,13.0,22,0.00,,,0.00,meteohub,2013-02-21 11:37:00,
2013-02-21 06:39:00,15.1,-17.0,30.29,West,270,7.0,13.0,22,0.00,,,0.00,meteohub,2013-02-21 11:39:00,
2013-02-21 06:41:00,15.1,-17.0,30.29,NE,45,6.0,17.0,22,0.00,,,0.00,meteohub,2013-02-21 11:41:00,
2013-02-21 06:42:00,15.1,-17.0,30.29,West,270,4.0,17.0,22,0.00,,,0.00,meteohub,2013-02-21 11:42:00,
2013-02-21 06:43:00,15.1,-17.0,30.29,West,270,2.0,17.0,22,0.00,,,0.00,meteohub,2013-02-21 11:43:00,
2013-02-21 06:45:00,15.1,-17.0,30.29,NW,315,10.0,17.0,22,0.00,,,0.00,meteohub,2013-02-21 11:45:00,
2013-02-21 06:46:00,15.1,-16.1,30.29,West,270,9.0,17.0,23,0.00,,,0.00,meteohub,2013-02-21 11:46:00,
2013-02-21 06:47:00,15.1,-16.1,30.29,West,270,9.0,17.0,23,0.00,,,0.00,meteohub,2013-02-21 11:47:00,
2013-02-21 06:48:00,15.1,-16.1,30.29,WSW,248,8.0,17.0,23,0.00,,,0.00,meteohub,2013-02-21 11:48:00,
2013-02-21 06:50:00,15.1,-16.1,30.29,West,270,8.0,17.0,23,0.00,,,0.00,meteohub,2013-02-21 11:50:00,
2013-02-21 06:52:00,15.1,-15.2,30.29,NW,315,7.0,17.0,24,0.00,,,0.00,meteohub,2013-02-21 11:52:00,
2013-02-21 06:53:00,15.1,-15.2,30.29,West,270,5.0,17.0,24,0.00,,,0.00,meteohub,2013-02-21 11:53:00,
2013-02-21 06:54:00,15.1,-15.2,30.29,WSW,248,9.0,17.0,24,0.00,,,0.00,meteohub,2013-02-21 11:54:00,
2013-02-21 06:56:00,15.1,-15.2,30.30,West,270,8.0,12.0,24,0.00,,,0.00,meteohub,2013-02-21 11:56:00,
2013-02-21 06:58:00,15.1,-15.2,30.29,North,0,11.0,12.0,24,0.00,,,0.00,meteohub,2013-02-21 11:58:00,
2013-02-21 06:59:00,15.1,-15.2,30.29,North,0,11.0,12.0,24,0.00,,,0.00,meteohub,2013-02-21 11:59:00,
2013-02-21 07:01:00,15.1,-15.2,30.29,NW,315,7.0,11.0,24,0.00,,,0.00,meteohub,2013-02-21 12:01:00,
2013-02-21 07:04:00,15.1,-14.4,30.30,West,270,11.0,11.0,25,0.00,,,0.00,meteohub,2013-02-21 12:04:00,
2013-02-21 07:05:00,15.1,-14.4,30.30,West,270,11.0,11.0,25,0.00,,,0.00,meteohub,2013-02-21 12:05:00,
2013-02-21 07:06:00,15.1,-14.4,30.30,WNW,293,15.0,15.0,25,0.00,,,0.00,meteohub,2013-02-21 12:06:00,
2013-02-21 07:09:00,15.1,-14.4,30.29,NW,315,4.0,11.0,25,0.00,,,0.00,meteohub,2013-02-21 12:09:00,
2013-02-21 07:10:00,15.3,-14.3,30.30,SE,135,12.0,12.0,25,0.00,,,0.00,meteohub,2013-02-21 12:10:00,
2013-02-21 07:12:00,15.1,-14.4,30.30,WSW,248,13.0,15.0,25,0.00,,,0.00,meteohub,2013-02-21 12:12:00,
2013-02-21 07:15:00,15.1,-14.4,30.31,West,270,9.0,15.0,25,0.00,,,0.00,meteohub,2013-02-21 12:15:00,
2013-02-21 07:16:00,15.1,-14.4,30.31,West,270,9.0,15.0,25,0.00,,,0.00,meteohub,2013-02-21 12:16:00,
2013-02-21 07:17:00,15.1,-14.4,30.30,NW,315,16.0,16.0,25,0.00,,,0.00,meteohub,2013-02-21 12:17:00,
2013-02-21 07:20:00,15.1,-14.4,30.30,NW,315,4.0,15.0,25,0.00,,,0.00,meteohub,2013-02-21 12:20:00,
2013-02-21 07:21:00,15.1,-14.4,30.30,NW,315,4.0,16.0,25,0.00,,,0.00,meteohub,2013-02-21 12:21:00,
2013-02-21 07:22:00,15.1,-14.4,30.30,North,0,9.0,16.0,25,0.00,,,0.00,meteohub,2013-02-21 12:22:00,
2013-02-21 07:25:00,15.1,-13.7,30.30,NW,315,9.0,16.0,26,0.00,,,0.00,meteohub,2013-02-21 12:25:00,
2013-02-21 07:26:00,15.1,-13.7,30.30,SE,135,10.0,16.0,26,0.00,,,0.00,meteohub,2013-02-21 12:26:00,
2013-02-21 07:27:00,15.1,-13.7,30.30,West,270,8.0,16.0,26,0.00,,,0.00,meteohub,2013-02-21 12:27:00,
2013-02-21 07:28:00,15.1,-13.7,30.30,West,270,4.0,16.0,26,0.00,,,0.00,meteohub,2013-02-21 12:28:00,
2013-02-21 07:31:00,15.1,-13.7,30.31,NW,315,6.0,16.0,26,0.00,,,0.00,meteohub,2013-02-21 12:31:00,
2013-02-21 07:33:00,15.1,-12.8,30.30,NE,45,13.0,16.0,27,0.00,,,0.00,meteohub,2013-02-21 12:33:00,
2013-02-21 07:36:00,15.1,-12.8,30.31,West,270,8.0,13.0,27,0.00,,,0.00,meteohub,2013-02-21 12:36:00,
2013-02-21 07:37:00,15.1,-12.8,30.31,NW,315,8.0,13.0,27,0.00,,,0.00,meteohub,2013-02-21 12:37:00,
2013-02-21 07:38:00,15.1,-12.8,30.30,NW,315,7.0,13.0,27,0.00,,,0.00,meteohub,2013-02-21 12:38:00,
2013-02-21 07:39:00,15.1,-12.8,30.30,NW,315,7.0,13.0,27,0.00,,,0.00,meteohub,2013-02-21 12:39:00,
2013-02-21 07:42:00,15.1,-12.1,30.31,West,270,10.0,13.0,28,0.00,,,0.00,meteohub,2013-02-21 12:42:00,
2013-02-21 07:44:00,15.1,-12.1,30.31,North,0,5.0,13.0,28,0.00,,,0.00,meteohub,2013-02-21 12:44:00,
2013-02-21 07:47:00,15.3,-12.1,30.32,NW,315,4.0,13.0,28,0.00,,,0.00,meteohub,2013-02-21 12:47:00,
2013-02-21 07:48:00,15.3,-12.1,30.31,NW,315,7.0,13.0,28,0.00,,,0.00,meteohub,2013-02-21 12:48:00,
2013-02-21 07:49:00,15.3,-12.1,30.31,NW,315,7.0,13.0,28,0.00,,,0.00,meteohub,2013-02-21 12:49:00,
2013-02-21 07:50:00,15.3,-12.1,30.31,NW,315,4.0,10.0,28,0.00,,,0.00,meteohub,2013-02-21 12:50:00,
2013-02-21 07:52:00,15.3,-11.4,30.31,WSW,248,2.0,10.0,29,0.00,,,0.00,meteohub,2013-02-21 12:52:00,
2013-02-21 07:55:00,15.3,-11.4,30.31,NE,45,4.0,12.0,29,0.00,,,0.00,meteohub,2013-02-21 12:55:00,
2013-02-21 07:56:00,15.3,-11.4,30.31,NE,45,4.0,12.0,29,0.00,,,0.00,meteohub,2013-02-21 12:56:00,
2013-02-21 07:57:00,15.4,-11.2,30.31,NE,45,5.0,12.0,29,0.00,,,0.00,meteohub,2013-02-21 12:57:00,
2013-02-21 08:00:00,15.4,-11.2,30.32,West,270,4.0,12.0,29,0.00,,,0.00,meteohub,2013-02-21 13:00:00,
2013-02-21 08:01:00,15.4,-11.2,30.32,West,270,4.0,12.0,29,0.00,,,0.00,meteohub,2013-02-21 13:01:00,
2013-02-21 08:02:00,15.4,-11.2,30.32,WSW,248,4.0,12.0,29,0.00,,,0.00,meteohub,2013-02-21 13:02:00,
2013-02-21 08:04:00,15.4,-11.2,30.32,NW,315,10.0,12.0,29,0.00,,,0.00,meteohub,2013-02-21 13:04:00,
2013-02-21 08:07:00,15.4,-11.2,30.32,WSW,248,3.0,12.0,29,0.00,,,0.00,meteohub,2013-02-21 13:07:00,
2013-02-21 08:09:00,15.6,-11.0,30.32,NW,315,9.0,12.0,29,0.00,,,0.00,meteohub,2013-02-21 13:09:00,
2013-02-21 08:11:00,15.6,-11.0,30.32,NW,315,6.0,10.0,29,0.00,,,0.00,meteohub,2013-02-21 13:11:00,
2013-02-21 08:12:00,15.6,-11.0,30.32,NW,315,4.0,10.0,29,0.00,,,0.00,meteohub,2013-02-21 13:12:00,
2013-02-21 08:14:00,15.6,-11.0,30.32,NW,315,11.0,11.0,29,0.00,,,0.00,meteohub,2013-02-21 13:14:00,
2013-02-21 08:16:00,15.6,-11.0,30.33,North,0,8.0,10.0,29,0.00,,,0.00,meteohub,2013-02-21 13:16:00,
2013-02-21 08:17:00,15.6,-11.0,30.32,WSW,248,2.0,10.0,29,0.00,,,0.00,meteohub,2013-02-21 13:17:00,
2013-02-21 08:18:00,15.6,-11.0,30.32,West,270,4.0,10.0,29,0.00,,,0.00,meteohub,2013-02-21 13:18:00,
2013-02-21 08:20:00,15.6,-11.0,30.33,NW,315,9.0,10.0,29,0.00,,,0.00,meteohub,2013-02-21 13:20:00,
2013-02-21 08:22:00,15.6,-10.3,30.33,West,270,9.0,11.0,30,0.00,,,0.00,meteohub,2013-02-21 13:22:00,
2013-02-21 08:23:00,15.6,-11.0,30.33,NW,315,2.0,11.0,29,0.00,,,0.00,meteohub,2013-02-21 13:23:00,
2013-02-21 08:26:00,15.6,-10.3,30.32,WSW,248,6.0,11.0,30,0.00,,,0.00,meteohub,2013-02-21 13:26:00,
2013-02-21 08:27:00,15.6,-10.3,30.33,NW,315,8.0,11.0,30,0.00,,,0.00,meteohub,2013-02-21 13:27:00,
2013-02-21 08:28:00,15.6,-10.3,30.33,North,0,8.0,11.0,30,0.00,,,0.00,meteohub,2013-02-21 13:28:00,
2013-02-21 08:30:00,15.8,-10.1,30.33,WSW,248,3.0,9.0,30,0.00,,,0.00,meteohub,2013-02-21 13:30:00,
2013-02-21 08:31:00,15.8,-10.1,30.33,North,0,4.0,9.0,30,0.00,,,0.00,meteohub,2013-02-21 13:31:00,
2013-02-21 08:32:00,15.8,-10.1,30.33,West,270,3.0,9.0,30,0.00,,,0.00,meteohub,2013-02-21 13:32:00,
2013-02-21 08:34:00,15.8,-10.1,30.33,NW,315,1.0,9.0,30,0.00,,,0.00,meteohub,2013-02-21 13:34:00,
2013-02-21 08:36:00,15.8,-10.1,30.33,NW,315,4.0,9.0,30,0.00,,,0.00,meteohub,2013-02-21 13:36:00,
2013-02-21 08:37:00,15.8,-10.1,30.33,NW,315,4.0,9.0,30,0.00,,,0.00,meteohub,2013-02-21 13:37:00,
2013-02-21 08:40:00,16.0,-9.9,30.34,NW,315,4.0,9.0,30,0.00,,,0.00,meteohub,2013-02-21 13:40:00,
2013-02-21 08:41:00,16.0,-9.9,30.34,NW,315,4.0,9.0,30,0.00,,,0.00,meteohub,2013-02-21 13:41:00,
2013-02-21 08:43:00,16.0,-9.9,30.34,NW,315,2.0,9.0,30,0.00,,,0.00,meteohub,2013-02-21 13:43:00,
2013-02-21 08:45:00,16.0,-9.9,30.33,North,0,3.0,9.0,30,0.00,,,0.00,meteohub,2013-02-21 13:45:00,
2013-02-21 08:46:00,16.0,-9.9,30.34,North,0,3.0,8.0,30,0.00,,,0.00,meteohub,2013-02-21 13:46:00,
2013-02-21 08:48:00,16.2,-9.8,30.34,NE,45,7.0,8.0,30,0.00,,,0.00,meteohub,2013-02-21 13:48:00,
2013-02-21 08:50:00,16.2,-9.8,30.34,NW,315,4.0,7.0,30,0.00,,,0.00,meteohub,2013-02-21 13:50:00,
2013-02-21 08:52:00,16.2,-9.8,30.34,West,270,2.0,7.0,30,0.00,,,0.00,meteohub,2013-02-21 13:52:00,
2013-02-21 08:53:00,16.2,-9.8,30.34,South,180,4.0,7.0,30,0.00,,,0.00,meteohub,2013-02-21 13:53:00,
2013-02-21 08:54:00,16.3,-9.8,30.34,NW,315,4.0,7.0,30,0.00,,,0.00,meteohub,2013-02-21 13:54:00,
2013-02-21 08:56:00,16.3,-9.8,30.34,NW,315,6.0,7.0,30,0.00,,,0.00,meteohub,2013-02-21 13:56:00,
2013-02-21 08:57:00,16.3,-9.8,30.35,NW,315,5.0,7.0,30,0.00,,,0.00,meteohub,2013-02-21 13:57:00,
2013-02-21 08:58:00,16.3,-9.8,30.35,NW,315,4.0,7.0,30,0.00,,,0.00,meteohub,2013-02-21 13:58:00,
2013-02-21 09:01:00,16.3,-9.8,30.35,West,270,5.0,8.0,30,0.00,,,0.00,meteohub,2013-02-21 14:01:00,
2013-02-21 09:02:00,16.5,-9.6,30.34,West,270,5.0,8.0,30,0.00,,,0.00,meteohub,2013-02-21 14:02:00,
2013-02-21 09:03:00,16.5,-9.6,30.34,West,270,4.0,8.0,30,0.00,,,0.00,meteohub,2013-02-21 14:03:00,
2013-02-21 09:06:00,16.5,-9.6,30.34,West,270,9.0,9.0,30,0.00,,,0.00,meteohub,2013-02-21 14:06:00,
2013-02-21 09:07:00,16.5,-9.6,30.34,NW,315,11.0,11.0,30,0.00,,,0.00,meteohub,2013-02-21 14:07:00,
2013-02-21 09:09:00,16.5,-9.6,30.35,NW,315,10.0,10.0,30,0.00,,,0.00,meteohub,2013-02-21 14:09:00,
2013-02-21 09:12:00,16.7,-9.4,30.34,WSW,248,6.0,11.0,30,0.00,,,0.00,meteohub,2013-02-21 14:12:00,
2013-02-21 09:13:00,16.7,-9.4,30.35,NW,315,6.0,11.0,30,0.00,,,0.00,meteohub,2013-02-21 14:13:00,
2013-02-21 09:14:00,16.7,-9.4,30.35,WSW,248,4.0,11.0,30,0.00,,,0.00,meteohub,2013-02-21 14:14:00,
2013-02-21 09:17:00,16.9,-9.2,30.35,NW,315,9.0,11.0,30,0.00,,,0.00,meteohub,2013-02-21 14:17:00,
2013-02-21 09:18:00,16.9,-9.2,30.35,North,0,4.0,11.0,30,0.00,,,0.00,meteohub,2013-02-21 14:18:00,
2013-02-21 09:19:00,17.1,-9.0,30.35,West,270,3.0,11.0,30,0.00,,,0.00,meteohub,2013-02-21 14:19:00,
2013-02-21 09:20:00,17.1,-9.0,30.35,NW,315,9.0,11.0,30,0.00,,,0.00,meteohub,2013-02-21 14:20:00,
2013-02-21 09:22:00,17.1,-9.0,30.35,NW,315,2.0,11.0,30,0.00,,,0.00,meteohub,2013-02-21 14:22:00,
2013-02-21 09:23:00,17.2,-8.9,30.35,NW,315,2.0,11.0,30,0.00,,,0.00,meteohub,2013-02-21 14:23:00,
2013-02-21 09:25:00,17.2,-8.9,30.35,West,270,2.0,10.0,30,0.00,,,0.00,meteohub,2013-02-21 14:25:00,
2013-02-21 09:26:00,17.2,-8.9,30.35,West,270,6.0,10.0,30,0.00,,,0.00,meteohub,2013-02-21 14:26:00,
2013-02-21 09:27:00,17.2,-8.9,30.35,NE,45,2.0,10.0,30,0.00,,,0.00,meteohub,2013-02-21 14:27:00,
2013-02-21 09:29:00,17.2,-8.9,30.35,NW,315,8.0,10.0,30,0.00,,,0.00,meteohub,2013-02-21 14:29:00,
2013-02-21 09:31:00,17.1,-9.8,30.35,North,0,11.0,11.0,29,0.00,,,0.00,meteohub,2013-02-21 14:31:00,
2013-02-21 09:32:00,16.9,-9.9,30.35,NW,315,6.0,10.0,29,0.00,,,0.00,meteohub,2013-02-21 14:32:00,
2013-02-21 09:33:00,16.9,-9.9,30.35,NW,315,8.0,10.0,29,0.00,,,0.00,meteohub,2013-02-21 14:33:00,
2013-02-21 09:34:00,16.9,-10.7,30.35,NW,315,3.0,10.0,28,0.00,,,0.00,meteohub,2013-02-21 14:34:00,
2013-02-21 09:37:00,16.9,-9.9,30.35,West,270,4.0,11.0,29,0.00,,,0.00,meteohub,2013-02-21 14:37:00,
2013-02-21 09:38:00,17.2,-9.6,30.35,North,0,8.0,11.0,29,0.00,,,0.00,meteohub,2013-02-21 14:38:00,
2013-02-21 09:39:00,17.2,-9.6,30.35,WSW,248,8.0,11.0,29,0.00,,,0.00,meteohub,2013-02-21 14:39:00,
2013-02-21 09:42:00,17.4,-9.4,30.35,NE,45,8.0,11.0,29,0.00,,,0.00,meteohub,2013-02-21 14:42:00,
2013-02-21 09:44:00,17.6,-9.2,30.35,North,0,12.0,12.0,29,0.00,,,0.00,meteohub,2013-02-21 14:44:00,
2013-02-21 09:45:00,17.4,-10.1,30.35,NW,315,8.0,11.0,28,0.00,,,0.00,meteohub,2013-02-21 14:45:00,
2013-02-21 09:48:00,17.6,-9.9,30.36,NW,315,10.0,15.0,28,0.00,,,0.00,meteohub,2013-02-21 14:48:00,
2013-02-21 09:49:00,17.8,-9.8,30.35,West,270,6.0,15.0,28,0.00,,,0.00,meteohub,2013-02-21 14:49:00,
2013-02-21 09:51:00,17.8,-9.8,30.35,NW,315,8.0,15.0,28,0.00,,,0.00,meteohub,2013-02-21 14:51:00,
2013-02-21 09:53:00,17.8,-9.8,30.35,NW,315,9.0,15.0,28,0.00,,,0.00,meteohub,2013-02-21 14:53:00,
2013-02-21 09:55:00,18.0,-10.5,30.35,West,270,3.0,15.0,27,0.00,,,0.00,meteohub,2013-02-21 14:55:00,
2013-02-21 09:56:00,17.8,-10.5,30.35,NW,315,12.0,15.0,27,0.00,,,0.00,meteohub,2013-02-21 14:56:00,
2013-02-21 10:00:00,17.6,-11.4,30.36,NW,315,15.0,15.0,26,0.00,,,0.00,meteohub,2013-02-21 15:00:00,
2013-02-21 10:01:00,17.6,-12.3,30.36,WSW,248,4.0,15.0,25,0.00,,,0.00,meteohub,2013-02-21 15:01:00,
2013-02-21 10:02:00,17.8,-12.1,30.36,NW,315,10.0,15.0,25,0.00,,,0.00,meteohub,2013-02-21 15:02:00,
2013-02-21 10:06:00,18.0,-11.9,30.36,NW,315,9.0,15.0,25,0.00,,,0.00,meteohub,2013-02-21 15:06:00,
2013-02-21 10:07:00,17.8,-12.1,30.36,NW,315,12.0,15.0,25,0.00,,,0.00,meteohub,2013-02-21 15:07:00,
2013-02-21 10:09:00,17.8,-13.0,30.36,NW,315,10.0,15.0,24,0.00,,,0.00,meteohub,2013-02-21 15:09:00,
2013-02-21 10:12:00,17.8,-13.0,30.36,ESE,113,4.0,15.0,24,0.00,,,0.00,meteohub,2013-02-21 15:12:00,
2013-02-21 10:14:00,18.0,-12.8,30.36,NE,45,9.0,15.0,24,0.00,,,0.00,meteohub,2013-02-21 15:14:00,
2013-02-21 10:17:00,18.1,-13.5,30.36,WSW,248,8.0,12.0,23,0.00,,,0.00,meteohub,2013-02-21 15:17:00,
2013-02-21 10:18:00,18.3,-14.3,30.36,WSW,248,7.0,12.0,22,0.00,,,0.00,meteohub,2013-02-21 15:18:00,
2013-02-21 10:20:00,18.5,-14.1,30.36,WSW,248,13.0,13.0,22,0.00,,,0.00,meteohub,2013-02-21 15:20:00,
2013-02-21 10:22:00,18.5,-15.0,30.36,North,0,3.0,12.0,21,0.00,,,0.00,meteohub,2013-02-21 15:22:00,
2013-02-21 10:23:00,18.5,-15.0,30.36,West,270,9.0,12.0,21,0.00,,,0.00,meteohub,2013-02-21 15:23:00,
2013-02-21 10:25:00,18.5,-15.0,30.36,WSW,248,4.0,12.0,21,0.00,,,0.00,meteohub,2013-02-21 15:25:00,
2013-02-21 10:27:00,18.5,-15.9,30.36,SE,135,4.0,13.0,20,0.00,,,0.00,meteohub,2013-02-21 15:27:00,
2013-02-21 10:28:00,18.5,-15.9,30.35,West,270,10.0,13.0,20,0.00,,,0.00,meteohub,2013-02-21 15:28:00,
2013-02-21 10:31:00,18.3,-17.1,30.35,NW,315,2.0,13.0,19,0.00,,,0.00,meteohub,2013-02-21 15:31:00,
2013-02-21 10:32:00,18.3,-18.0,30.35,West,270,6.0,13.0,18,0.00,,,0.00,meteohub,2013-02-21 15:32:00,
2013-02-21 10:34:00,18.3,-18.0,30.35,NW,315,10.0,13.0,18,0.00,,,0.00,meteohub,2013-02-21 15:34:00,
2013-02-21 10:36:00,18.0,-19.5,30.35,East,90,3.0,13.0,17,0.00,,,0.00,meteohub,2013-02-21 15:36:00,
2013-02-21 10:37:00,18.1,-19.3,30.35,WSW,248,4.0,13.0,17,0.00,,,0.00,meteohub,2013-02-21 15:37:00,
2013-02-21 10:39:00,18.3,-18.0,30.36,West,270,5.0,13.0,18,0.00,,,0.00,meteohub,2013-02-21 15:39:00,
2013-02-21 10:42:00,18.5,-17.0,30.35,West,270,6.0,12.0,19,0.00,,,0.00,meteohub,2013-02-21 15:42:00,
2013-02-21 10:44:00,18.9,-16.6,30.35,West,270,7.0,12.0,19,0.00,,,0.00,meteohub,2013-02-21 15:44:00,
2013-02-21 10:48:00,18.9,-17.7,30.35,West,270,3.0,12.0,18,0.00,,,0.00,meteohub,2013-02-21 15:48:00,
2013-02-21 10:50:00,19.0,-18.6,30.35,West,270,8.0,12.0,17,0.00,,,0.00,meteohub,2013-02-21 15:50:00,
2013-02-21 10:53:00,18.9,-21.1,30.35,North,0,4.0,8.0,15,0.00,,,0.00,meteohub,2013-02-21 15:53:00,
2013-02-21 10:54:00,19.0,-19.8,30.35,NW,315,9.0,9.0,16,0.00,,,0.00,meteohub,2013-02-21 15:54:00,
2013-02-21 10:55:00,19.0,-19.8,30.35,NW,315,4.0,8.0,16,0.00,,,0.00,meteohub,2013-02-21 15:55:00,
2013-02-21 10:59:00,19.2,-20.9,30.35,North,0,5.0,10.0,15,0.00,,,0.00,meteohub,2013-02-21 15:59:00,
2013-02-21 11:00:00,19.4,-20.7,30.35,West,270,8.0,10.0,15,0.00,,,0.00,meteohub,2013-02-21 16:00:00,
2013-02-21 11:04:00,19.2,-25.1,30.35,WSW,248,3.0,13.0,12,0.00,,,0.00,meteohub,2013-02-21 16:04:00,
2013-02-21 11:05:00,19.2,-25.1,30.35,NW,315,2.0,13.0,12,0.00,,,0.00,meteohub,2013-02-21 16:05:00,
2013-02-21 11:06:00,19.6,-23.3,30.35,NW,315,6.0,13.0,13,0.00,,,0.00,meteohub,2013-02-21 16:06:00,
2013-02-21 11:09:00,20.1,-24.3,30.34,North,0,7.0,13.0,12,0.00,,,0.00,meteohub,2013-02-21 16:09:00,
2013-02-21 11:11:00,20.3,-24.2,30.34,East,90,10.0,13.0,12,0.00,,,0.00,meteohub,2013-02-21 16:11:00,
2013-02-21 11:12:00,20.3,-26.0,30.34,West,270,14.0,14.0,11,0.00,,,0.00,meteohub,2013-02-21 16:12:00,
2013-02-21 11:15:00,20.7,20.7,30.34,NW,315,2.0,14.0,0,0.00,,,0.00,meteohub,2013-02-21 16:15:00,
2013-02-21 11:16:00,21.0,21.0,30.35,NW,315,11.0,14.0,0,0.00,,,0.00,meteohub,2013-02-21 16:16:00,
2013-02-21 11:17:00,21.0,21.0,30.35,NW,315,11.0,14.0,0,0.00,,,0.00,meteohub,2013-02-21 16:17:00,
2013-02-21 11:21:00,20.8,20.8,30.35,West,270,5.0,14.0,0,0.00,,,0.00,meteohub,2013-02-21 16:21:00,
2013-02-21 11:22:00,20.7,20.7,30.35,North,0,6.0,14.0,0,0.00,,,0.00,meteohub,2013-02-21 16:22:00,
2013-02-21 11:26:00,21.6,21.6,30.35,West,270,9.0,14.0,0,0.00,,,0.00,meteohub,2013-02-21 16:26:00,
2013-02-21 11:27:00,21.6,21.6,30.35,North,0,6.0,14.0,0,0.00,,,0.00,meteohub,2013-02-21 16:27:00,
2013-02-21 11:32:00,19.9,19.9,30.36,NW,315,10.0,11.0,0,0.00,,,0.00,meteohub,2013-02-21 16:32:00,
2013-02-21 11:33:00,19.9,19.9,30.35,North,0,5.0,11.0,0,0.00,,,0.00,meteohub,2013-02-21 16:33:00,
2013-02-21 11:37:00,19.6,19.6,30.35,North,0,5.0,14.0,0,0.00,,,0.00,meteohub,2013-02-21 16:37:00,
2013-02-21 11:38:00,19.8,19.8,30.36,West,270,7.0,14.0,0,0.00,,,0.00,meteohub,2013-02-21 16:38:00,
2013-02-21 11:39:00,19.6,19.6,30.36,North,0,11.0,14.0,0,0.00,,,0.00,meteohub,2013-02-21 16:39:00,
2013-02-21 11:42:00,20.1,20.1,30.36,West,270,8.0,14.0,0,0.00,,,0.00,meteohub,2013-02-21 16:42:00,
2013-02-21 11:43:00,20.1,20.1,30.36,North,0,8.0,14.0,0,0.00,,,0.00,meteohub,2013-02-21 16:43:00,
2013-02-21 11:44:00,19.9,19.9,30.37,West,270,11.0,14.0,0,0.00,,,0.00,meteohub,2013-02-21 16:44:00,
2013-02-21 11:45:00,20.1,20.1,30.37,NW,315,9.0,14.0,0,0.00,,,0.00,meteohub,2013-02-21 16:45:00,
2013-02-21 11:48:00,19.9,19.9,30.37,NW,315,8.0,14.0,0,0.00,,,0.00,meteohub,2013-02-21 16:48:00,
2013-02-21 11:49:00,19.9,19.9,30.37,WSW,248,9.0,14.0,0,0.00,,,0.00,meteohub,2013-02-21 16:49:00,
2013-02-21 11:50:00,19.8,19.8,30.37,NW,315,3.0,14.0,0,0.00,,,0.00,meteohub,2013-02-21 16:50:00,
2013-02-21 11:53:00,19.8,19.8,30.37,North,0,11.0,13.0,0,0.00,,,0.00,meteohub,2013-02-21 16:53:00,
2013-02-21 11:54:00,19.8,19.8,30.37,North,0,11.0,13.0,0,0.00,,,0.00,meteohub,2013-02-21 16:54:00,
2013-02-21 11:55:00,19.8,19.8,30.36,North,0,11.0,13.0,0,0.00,,,0.00,meteohub,2013-02-21 16:55:00,
2013-02-21 11:59:00,20.1,20.1,30.37,NW,315,10.0,13.0,0,0.00,,,0.00,meteohub,2013-02-21 16:59:00,
2013-02-21 12:00:00,20.3,20.3,30.37,WSW,248,8.0,13.0,0,0.00,,,0.00,meteohub,2013-02-21 17:00:00,
2013-02-21 12:01:00,20.3,20.3,30.37,WSW,248,8.0,12.0,0,0.00,,,0.00,meteohub,2013-02-21 17:01:00,
2013-02-21 12:05:00,21.6,21.6,30.37,North,0,8.0,12.0,0,0.00,,,0.00,meteohub,2013-02-21 17:05:00,
2013-02-21 12:06:00,21.9,21.9,30.37,NW,315,8.0,12.0,0,0.00,,,0.00,meteohub,2013-02-21 17:06:00,
2013-02-21 12:07:00,22.1,22.1,30.37,West,270,13.0,13.0,0,0.00,,,0.00,meteohub,2013-02-21 17:07:00,
2013-02-21 12:11:00,22.5,22.5,30.37,NW,315,8.0,13.0,0,0.00,,,0.00,meteohub,2013-02-21 17:11:00,
2013-02-21 12:13:00,22.5,22.5,30.37,WSW,248,5.0,13.0,0,0.00,,,0.00,meteohub,2013-02-21 17:13:00,
2013-02-21 12:16:00,22.6,22.6,30.37,NW,315,6.0,13.0,0,0.00,,,0.00,meteohub,2013-02-21 17:16:00,
2013-02-21 12:17:00,22.8,22.8,30.37,NW,315,15.0,15.0,0,0.00,,,0.00,meteohub,2013-02-21 17:17:00,
2013-02-21 12:18:00,22.8,22.8,30.37,NW,315,11.0,13.0,0,0.00,,,0.00,meteohub,2013-02-21 17:18:00,
2013-02-21 12:22:00,22.3,22.3,30.37,North,0,9.0,15.0,0,0.00,,,0.00,meteohub,2013-02-21 17:22:00,
2013-02-21 12:23:00,22.5,22.5,30.37,West,270,5.0,15.0,0,0.00,,,0.00,meteohub,2013-02-21 17:23:00,
2013-02-21 12:24:00,22.6,22.6,30.37,WSW,248,11.0,15.0,0,0.00,,,0.00,meteohub,2013-02-21 17:24:00,
2013-02-21 12:27:00,22.8,22.8,30.38,NW,315,5.0,15.0,0,0.00,,,0.00,meteohub,2013-02-21 17:27:00,
2013-02-21 12:28:00,22.8,22.8,30.38,NW,315,5.0,15.0,0,0.00,,,0.00,meteohub,2013-02-21 17:28:00,
2013-02-21 12:29:00,23.0,23.0,30.37,NW,315,10.0,15.0,0,0.00,,,0.00,meteohub,2013-02-21 17:29:00,
2013-02-21 12:30:00,23.0,23.0,30.37,NW,315,6.0,15.0,0,0.00,,,0.00,meteohub,2013-02-21 17:30:00,
2013-02-21 12:33:00,23.0,23.0,30.37,NW,315,4.0,15.0,0,0.00,,,0.00,meteohub,2013-02-21 17:33:00,
2013-02-21 12:35:00,23.2,23.2,30.37,NW,315,8.0,13.0,0,0.00,,,0.00,meteohub,2013-02-21 17:35:00,
2013-02-21 12:36:00,23.0,23.0,30.38,NW,315,8.0,13.0,0,0.00,,,0.00,meteohub,2013-02-21 17:36:00,
2013-02-21 12:40:00,22.6,22.6,30.37,NW,315,8.0,13.0,0,0.00,,,0.00,meteohub,2013-02-21 17:40:00,
2013-02-21 12:41:00,22.6,22.6,30.37,NW,315,8.0,13.0,0,0.00,,,0.00,meteohub,2013-02-21 17:41:00,
2013-02-21 12:42:00,22.6,22.6,30.37,North,0,11.0,13.0,0,0.00,,,0.00,meteohub,2013-02-21 17:42:00,
2013-02-21 12:46:00,23.4,23.4,30.37,NW,315,6.0,12.0,0,0.00,,,0.00,meteohub,2013-02-21 17:46:00,
2013-02-21 12:47:00,23.7,23.7,30.37,NW,315,4.0,12.0,0,0.00,,,0.00,meteohub,2013-02-21 17:47:00,
2013-02-21 12:49:00,24.1,24.1,30.36,NE,45,11.0,12.0,0,0.00,,,0.00,meteohub,2013-02-21 17:49:00,
2013-02-21 12:51:00,24.8,24.8,30.36,NE,45,7.0,12.0,0,0.00,,,0.00,meteohub,2013-02-21 17:51:00,
2013-02-21 12:52:00,25.0,25.0,30.36,East,90,6.0,12.0,0,0.00,,,0.00,meteohub,2013-02-21 17:52:00,
2013-02-21 12:53:00,25.0,25.0,30.36,North,0,4.0,12.0,0,0.00,,,0.00,meteohub,2013-02-21 17:53:00,
2013-02-21 12:54:00,25.3,25.3,30.36,North,0,5.0,12.0,0,0.00,,,0.00,meteohub,2013-02-21 17:54:00,
2013-02-21 12:57:00,26.1,26.1,30.36,NE,45,2.0,11.0,0,0.00,,,0.00,meteohub,2013-02-21 17:57:00,
2013-02-21 12:58:00,26.6,26.6,30.36,NE,45,10.0,11.0,0,0.00,,,0.00,meteohub,2013-02-21 17:58:00,
2013-02-21 12:59:00,26.6,26.6,30.36,NE,45,10.0,11.0,0,0.00,,,0.00,meteohub,2013-02-21 17:59:00,
2013-02-21 13:00:00,26.6,26.6,30.36,NW,315,5.0,11.0,0,0.00,,,0.00,meteohub,2013-02-21 18:00:00,
2013-02-21 13:02:00,25.9,25.9,30.36,WSW,248,8.0,11.0,0,0.00,,,0.00,meteohub,2013-02-21 18:02:00,
2013-02-21 13:04:00,25.7,25.7,30.36,North,0,6.0,11.0,0,0.00,,,0.00,meteohub,2013-02-21 18:04:00,
2013-02-21 13:05:00,25.3,25.3,30.36,WSW,248,10.0,10.0,0,0.00,,,0.00,meteohub,2013-02-21 18:05:00,
2013-02-21 13:07:00,25.2,25.2,30.35,NW,315,4.0,10.0,0,0.00,,,0.00,meteohub,2013-02-21 18:07:00,
2013-02-21 13:09:00,25.3,25.3,30.35,NW,315,9.0,10.0,0,0.00,,,0.00,meteohub,2013-02-21 18:09:00,
2013-02-21 13:11:00,25.5,25.5,30.35,NW,315,7.0,10.0,0,0.00,,,0.00,meteohub,2013-02-21 18:11:00,
2013-02-21 13:13:00,25.2,25.2,30.35,NW,315,4.0,10.0,0,0.00,,,0.00,meteohub,2013-02-21 18:13:00,
2013-02-21 13:14:00,25.2,25.2,30.36,NW,315,7.0,10.0,0,0.00,,,0.00,meteohub,2013-02-21 18:14:00,
2013-02-21 13:15:00,25.2,25.2,30.36,NW,315,7.0,10.0,0,0.00,,,0.00,meteohub,2013-02-21 18:15:00,
2013-02-21 13:17:00,25.2,25.2,30.35,NW,315,10.0,10.0,0,0.00,,,0.00,meteohub,2013-02-21 18:17:00,
2013-02-21 13:19:00,25.3,25.3,30.36,NW,315,7.0,10.0,0,0.00,,,0.00,meteohub,2013-02-21 18:19:00,
2013-02-21 13:20:00,26.1,26.1,30.36,NW,315,4.0,10.0,0,0.00,,,0.00,meteohub,2013-02-21 18:20:00,
2013-02-21 13:21:00,26.6,26.6,30.36,West,270,10.0,10.0,0,0.00,,,0.00,meteohub,2013-02-21 18:21:00,
2013-02-21 13:22:00,26.4,26.4,30.36,North,0,13.0,13.0,0,0.00,,,0.00,meteohub,2013-02-21 18:22:00,
2013-02-21 13:26:00,26.8,26.8,30.36,West,270,10.0,13.0,0,0.00,,,0.00,meteohub,2013-02-21 18:26:00,
2013-02-21 13:27:00,27.0,27.0,30.36,West,270,7.0,13.0,0,0.00,,,0.00,meteohub,2013-02-21 18:27:00,
2013-02-21 13:30:00,27.1,27.1,30.35,NW,315,7.0,13.0,0,0.00,,,0.00,meteohub,2013-02-21 18:30:00,
2013-02-21 13:32:00,26.2,26.2,30.36,West,270,10.0,13.0,0,0.00,,,0.00,meteohub,2013-02-21 18:32:00,
2013-02-21 13:35:00,24.8,24.8,30.36,WSW,248,12.0,13.0,0,0.00,,,0.00,meteohub,2013-02-21 18:35:00,
2013-02-21 13:37:00,24.3,24.3,30.36,West,270,6.0,13.0,0,0.00,,,0.00,meteohub,2013-02-21 18:37:00,
2013-02-21 13:38:00,24.1,24.1,30.36,NW,315,12.0,13.0,0,0.00,,,0.00,meteohub,2013-02-21 18:38:00,
2013-02-21 13:41:00,23.9,23.9,30.36,NW,315,8.0,12.0,0,0.00,,,0.00,meteohub,2013-02-21 18:41:00,
2013-02-21 13:43:00,23.5,23.5,30.36,West,270,8.0,12.0,0,0.00,,,0.00,meteohub,2013-02-21 18:43:00,
2013-02-21 13:47:00,22.6,22.6,30.37,North,0,10.0,12.0,0,0.00,,,0.00,meteohub,2013-02-21 18:47:00,
2013-02-21 13:49:00,22.5,22.5,30.37,North,0,9.0,12.0,0,0.00,,,0.00,meteohub,2013-02-21 18:49:00,
2013-02-21 13:50:00,22.8,22.8,30.36,NW,315,6.0,12.0,0,0.00,,,0.00,meteohub,2013-02-21 18:50:00,
2013-02-21 13:52:00,23.0,23.0,30.36,NW,315,11.0,12.0,0,0.00,,,0.00,meteohub,2013-02-21 18:52:00,
2013-02-21 13:54:00,23.0,23.0,30.36,North,0,9.0,12.0,0,0.00,,,0.00,meteohub,2013-02-21 18:54:00,
2013-02-21 13:55:00,23.0,23.0,30.36,NW,315,12.0,12.0,0,0.00,,,0.00,meteohub,2013-02-21 18:55:00,
2013-02-21 13:58:00,22.5,22.5,30.36,NW,315,5.0,11.0,0,0.00,,,0.00,meteohub,2013-02-21 18:58:00,
2013-02-21 13:59:00,23.0,23.0,30.36,WSW,248,2.0,11.0,0,0.00,,,0.00,meteohub,2013-02-21 18:59:00,
2013-02-21 14:00:00,23.0,23.0,30.36,WSW,248,2.0,12.0,0,0.00,,,0.00,meteohub,2013-02-21 19:00:00,
2013-02-21 14:01:00,23.0,23.0,30.36,WSW,248,2.0,12.0,0,0.00,,,0.00,meteohub,2013-02-21 19:01:00,
2013-02-21 14:04:00,23.4,23.4,30.36,West,270,8.0,12.0,0,0.00,,,0.00,meteohub,2013-02-21 19:04:00,
2013-02-21 14:05:00,23.0,23.0,30.36,West,270,8.0,12.0,0,0.00,,,0.00,meteohub,2013-02-21 19:05:00,
2013-02-21 14:06:00,23.0,23.0,30.36,West,270,10.0,12.0,0,0.00,,,0.00,meteohub,2013-02-21 19:06:00,
2013-02-21 14:07:00,23.0,23.0,30.36,North,0,6.0,12.0,0,0.00,,,0.00,meteohub,2013-02-21 19:07:00,
2013-02-21 14:09:00,23.0,23.0,30.37,NW,315,3.0,12.0,0,0.00,,,0.00,meteohub,2013-02-21 19:09:00,
2013-02-21 14:10:00,23.2,23.2,30.37,NW,315,4.0,12.0,0,0.00,,,0.00,meteohub,2013-02-21 19:10:00,
2013-02-21 14:11:00,23.7,23.7,30.37,South,180,4.0,12.0,0,0.00,,,0.00,meteohub,2013-02-21 19:11:00,
2013-02-21 14:13:00,24.4,24.4,30.37,NW,315,11.0,12.0,0,0.00,,,0.00,meteohub,2013-02-21 19:13:00,
2013-02-21 14:15:00,24.6,24.6,30.36,East,90,4.0,12.0,0,0.00,,,0.00,meteohub,2013-02-21 19:15:00,
2013-02-21 14:16:00,24.6,24.6,30.36,East,90,4.0,12.0,0,0.00,,,0.00,meteohub,2013-02-21 19:16:00,
2013-02-21 14:17:00,24.3,24.3,30.37,NE,45,8.0,12.0,0,0.00,,,0.00,meteohub,2013-02-21 19:17:00,
2013-02-21 14:20:00,24.1,24.1,30.38,NE,45,5.0,11.0,0,0.00,,,0.00,meteohub,2013-02-21 19:20:00,
2013-02-21 14:21:00,23.9,23.9,30.38,NW,315,6.0,11.0,0,0.00,,,0.00,meteohub,2013-02-21 19:21:00,
2013-02-21 14:23:00,23.5,23.5,30.37,NW,315,11.0,11.0,0,0.00,,,0.00,meteohub,2013-02-21 19:23:00,
2013-02-21 14:25:00,22.5,22.5,30.37,NW,315,6.0,12.0,0,0.00,,,0.00,meteohub,2013-02-21 19:25:00,
2013-02-21 14:26:00,22.1,22.1,30.36,West,270,4.0,12.0,0,0.00,,,0.00,meteohub,2013-02-21 19:26:00,
2013-02-21 14:27:00,22.1,22.1,30.36,West,270,4.0,12.0,0,0.00,,,0.00,meteohub,2013-02-21 19:27:00,
2013-02-21 14:28:00,22.1,22.1,30.37,West,270,8.0,12.0,0,0.00,,,0.00,meteohub,2013-02-21 19:28:00,
2013-02-21 14:30:00,22.3,22.3,30.37,NW,315,9.0,12.0,0,0.00,,,0.00,meteohub,2013-02-21 19:30:00,
2013-02-21 14:32:00,22.1,22.1,30.37,North,0,9.0,12.0,0,0.00,,,0.00,meteohub,2013-02-21 19:32:00,
2013-02-21 14:33:00,21.9,21.9,30.37,West,270,10.0,12.0,0,0.00,,,0.00,meteohub,2013-02-21 19:33:00,
2013-02-21 14:35:00,21.6,21.6,30.37,West,270,8.0,12.0,0,0.00,,,0.00,meteohub,2013-02-21 19:35:00,
2013-02-21 14:37:00,21.9,21.9,30.37,NW,315,15.0,15.0,0,0.00,,,0.00,meteohub,2013-02-21 19:37:00,
2013-02-21 14:38:00,21.9,21.9,30.37,NW,315,15.0,15.0,0,0.00,,,0.00,meteohub,2013-02-21 19:38:00,
2013-02-21 14:42:00,21.6,21.6,30.38,NW,315,9.0,15.0,0,0.00,,,0.00,meteohub,2013-02-21 19:42:00,
2013-02-21 14:43:00,21.4,21.4,30.38,NW,315,8.0,15.0,0,0.00,,,0.00,meteohub,2013-02-21 19:43:00,
2013-02-21 14:44:00,21.4,21.4,30.38,NW,315,6.0,15.0,0,0.00,,,0.00,meteohub,2013-02-21 19:44:00,
2013-02-21 14:47:00,21.4,21.4,30.38,NW,315,3.0,15.0,0,0.00,,,0.00,meteohub,2013-02-21 19:47:00,
2013-02-21 14:49:00,21.4,21.4,30.38,NW,315,9.0,15.0,0,0.00,,,0.00,meteohub,2013-02-21 19:49:00,
2013-02-21 14:53:00,21.6,21.6,30.38,WSW,248,6.0,15.0,0,0.00,,,0.00,meteohub,2013-02-21 19:53:00,
2013-02-21 14:54:00,21.4,21.4,30.38,NW,315,6.0,15.0,0,0.00,,,0.00,meteohub,2013-02-21 19:54:00,
2013-02-21 14:56:00,21.2,21.2,30.38,East,90,9.0,10.0,0,0.00,,,0.00,meteohub,2013-02-21 19:56:00,
2013-02-21 14:58:00,21.0,21.0,30.38,NW,315,4.0,10.0,0,0.00,,,0.00,meteohub,2013-02-21 19:58:00,
2013-02-21 14:59:00,21.0,21.0,30.38,West,270,2.0,10.0,0,0.00,,,0.00,meteohub,2013-02-21 19:59:00,
2013-02-21 15:00:00,21.0,21.0,30.38,West,270,2.0,10.0,0,0.00,,,0.00,meteohub,2013-02-21 20:00:00,
2013-02-21 15:01:00,21.0,21.0,30.38,West,270,2.0,10.0,0,0.00,,,0.00,meteohub,2013-02-21 20:01:00,
2013-02-21 15:04:00,21.6,21.6,30.37,South,180,3.0,10.0,0,0.00,,,0.00,meteohub,2013-02-21 20:04:00,
2013-02-21 15:05:00,21.7,21.7,30.38,NE,45,5.0,11.0,0,0.00,,,0.00,meteohub,2013-02-21 20:05:00,
2013-02-21 15:06:00,21.7,21.7,30.38,NE,45,5.0,11.0,0,0.00,,,0.00,meteohub,2013-02-21 20:06:00,
2013-02-21 15:07:00,22.1,22.1,30.37,North,0,6.0,11.0,0,0.00,,,0.00,meteohub,2013-02-21 20:07:00,
2013-02-21 15:09:00,23.5,23.5,30.38,NW,315,4.0,11.0,0,0.00,,,0.00,meteohub,2013-02-21 20:09:00,
2013-02-21 15:11:00,24.6,24.6,30.38,NW,315,11.0,11.0,0,0.00,,,0.00,meteohub,2013-02-21 20:11:00,
2013-02-21 15:12:00,24.8,24.8,30.38,North,0,4.0,11.0,0,0.00,,,0.00,meteohub,2013-02-21 20:12:00,
2013-02-21 15:14:00,24.1,24.1,30.37,NW,315,11.0,11.0,0,0.00,,,0.00,meteohub,2013-02-21 20:14:00,
2013-02-21 15:16:00,23.7,23.7,30.37,NE,45,9.0,11.0,0,0.00,,,0.00,meteohub,2013-02-21 20:16:00,
2013-02-21 15:17:00,23.0,23.0,30.38,NW,315,4.0,11.0,0,0.00,,,0.00,meteohub,2013-02-21 20:17:00,
2013-02-21 15:20:00,22.3,22.3,30.37,North,0,10.0,11.0,0,0.00,,,0.00,meteohub,2013-02-21 20:20:00,
2013-02-21 15:22:00,22.6,22.6,30.37,NW,315,8.0,11.0,0,0.00,,,0.00,meteohub,2013-02-21 20:22:00,
2013-02-21 15:23:00,23.7,23.7,30.37,NW,315,8.0,11.0,0,0.00,,,0.00,meteohub,2013-02-21 20:23:00,
2013-02-21 15:25:00,24.8,24.8,30.37,East,90,3.0,11.0,0,0.00,,,0.00,meteohub,2013-02-21 20:25:00,
2013-02-21 15:27:00,24.8,24.8,30.37,North,0,6.0,11.0,0,0.00,,,0.00,meteohub,2013-02-21 20:27:00,
2013-02-21 15:28:00,24.8,24.8,30.37,NW,315,3.0,11.0,0,0.00,,,0.00,meteohub,2013-02-21 20:28:00,
2013-02-21 15:29:00,24.4,24.4,30.37,NW,315,6.0,11.0,0,0.00,,,0.00,meteohub,2013-02-21 20:29:00,
2013-02-21 15:32:00,23.0,23.0,30.37,West,270,4.0,11.0,0,0.00,,,0.00,meteohub,2013-02-21 20:32:00,
2013-02-21 15:33:00,23.2,23.2,30.37,North,0,3.0,11.0,0,0.00,,,0.00,meteohub,2013-02-21 20:33:00,
2013-02-21 15:34:00,23.4,23.4,30.37,North,0,8.0,11.0,0,0.00,,,0.00,meteohub,2013-02-21 20:34:00,
2013-02-21 15:36:00,24.1,24.1,30.38,NW,315,8.0,10.0,0,0.00,,,0.00,meteohub,2013-02-21 20:36:00,
2013-02-21 15:38:00,25.0,25.0,30.37,NW,315,7.0,10.0,0,0.00,,,0.00,meteohub,2013-02-21 20:38:00,
2013-02-21 15:39:00,25.0,25.0,30.37,West,270,6.0,10.0,0,0.00,,,0.00,meteohub,2013-02-21 20:39:00,
2013-02-21 15:40:00,25.0,25.0,30.37,WSW,248,6.0,9.0,0,0.00,,,0.00,meteohub,2013-02-21 20:40:00,
2013-02-21 15:43:00,25.3,25.3,30.37,NW,315,5.0,9.0,0,0.00,,,0.00,meteohub,2013-02-21 20:43:00,
2013-02-21 15:44:00,25.7,25.7,30.37,NW,315,2.0,9.0,0,0.00,,,0.00,meteohub,2013-02-21 20:44:00,
2013-02-21 15:46:00,25.9,25.9,30.37,NW,315,8.0,9.0,0,0.00,,,0.00,meteohub,2013-02-21 20:46:00,
2013-02-21 15:48:00,25.3,25.3,30.37,North,0,4.0,9.0,0,0.00,,,0.00,meteohub,2013-02-21 20:48:00,
2013-02-21 15:50:00,24.8,24.8,30.37,NW,315,4.0,9.0,0,0.00,,,0.00,meteohub,2013-02-21 20:50:00,
2013-02-21 15:52:00,24.3,24.3,30.37,West,270,6.0,8.0,0,0.00,,,0.00,meteohub,2013-02-21 20:52:00,
2013-02-21 15:53:00,23.5,23.5,30.37,North,0,5.0,8.0,0,0.00,,,0.00,meteohub,2013-02-21 20:53:00,
2013-02-21 15:55:00,23.7,23.7,30.37,NW,315,3.0,8.0,0,0.00,,,0.00,meteohub,2013-02-21 20:55:00,
2013-02-21 15:57:00,24.3,24.3,30.37,NW,315,2.0,9.0,0,0.00,,,0.00,meteohub,2013-02-21 20:57:00,
2013-02-21 15:59:00,24.3,24.3,30.37,North,0,5.0,9.0,0,0.00,,,0.00,meteohub,2013-02-21 20:59:00,
2013-02-21 16:00:00,24.1,24.1,30.37,WSW,248,6.0,9.0,0,0.00,,,0.00,meteohub,2013-02-21 21:00:00,
2013-02-21 16:02:00,23.9,23.9,30.37,West,270,6.0,9.0,0,0.00,,,0.00,meteohub,2013-02-21 21:02:00,
2013-02-21 16:04:00,23.2,23.2,30.37,NW,315,5.0,9.0,0,0.00,,,0.00,meteohub,2013-02-21 21:04:00,
2013-02-21 16:05:00,23.2,23.2,30.37,West,270,2.0,9.0,0,0.00,,,0.00,meteohub,2013-02-21 21:05:00,
2013-02-21 16:07:00,23.7,23.7,30.36,NW,315,7.0,9.0,0,0.00,,,0.00,meteohub,2013-02-21 21:07:00,
2013-02-21 16:09:00,24.3,24.3,30.36,NW,315,10.0,10.0,0,0.00,,,0.00,meteohub,2013-02-21 21:09:00,
2013-02-21 16:10:00,24.3,24.3,30.36,North,0,8.0,8.0,0,0.00,,,0.00,meteohub,2013-02-21 21:10:00,
2013-02-21 16:11:00,24.3,24.3,30.36,North,0,8.0,8.0,0,0.00,,,0.00,meteohub,2013-02-21 21:11:00,
2013-02-21 16:12:00,24.1,24.1,30.36,West,270,6.0,8.0,0,0.00,,,0.00,meteohub,2013-02-21 21:12:00,
2013-02-21 16:14:00,23.2,23.2,30.37,WSW,248,6.0,8.0,0,0.00,,,0.00,meteohub,2013-02-21 21:14:00,
2013-02-21 16:16:00,22.6,22.6,30.36,North,0,4.0,10.0,0,0.00,,,0.00,meteohub,2013-02-21 21:16:00,
2013-02-21 16:18:00,22.3,22.3,30.37,North,0,8.0,10.0,0,0.00,,,0.00,meteohub,2013-02-21 21:18:00,
2013-02-21 16:20:00,21.9,21.9,30.36,West,270,7.0,10.0,0,0.00,,,0.00,meteohub,2013-02-21 21:20:00,
2013-02-21 16:21:00,21.7,21.7,30.36,NW,315,2.0,10.0,0,0.00,,,0.00,meteohub,2013-02-21 21:21:00,
2013-02-21 16:22:00,21.6,21.6,30.36,North,0,3.0,10.0,0,0.00,,,0.00,meteohub,2013-02-21 21:22:00,
2013-02-21 16:23:00,21.2,21.2,30.36,North,0,8.0,10.0,0,0.00,,,0.00,meteohub,2013-02-21 21:23:00,
2013-02-21 16:25:00,21.6,21.6,30.36,West,270,8.0,10.0,0,0.00,,,0.00,meteohub,2013-02-21 21:25:00,
2013-02-21 16:27:00,21.6,21.6,30.36,North,0,2.0,10.0,0,0.00,,,0.00,meteohub,2013-02-21 21:27:00,
2013-02-21 16:28:00,21.6,21.6,30.36,North,0,2.0,10.0,0,0.00,,,0.00,meteohub,2013-02-21 21:28:00,
2013-02-21 16:31:00,21.2,21.2,30.37,WSW,248,4.0,8.0,0,0.00,,,0.00,meteohub,2013-02-21 21:31:00,
2013-02-21 16:32:00,21.2,21.2,30.37,WSW,248,6.0,8.0,0,0.00,,,0.00,meteohub,2013-02-21 21:32:00,
2013-02-21 16:33:00,21.2,21.2,30.37,NW,315,4.0,8.0,0,0.00,,,0.00,meteohub,2013-02-21 21:33:00,
2013-02-21 16:34:00,21.4,21.4,30.37,West,270,8.0,8.0,0,0.00,,,0.00,meteohub,2013-02-21 21:34:00,
2013-02-21 16:37:00,22.5,22.5,30.38,NW,315,3.0,8.0,0,0.00,,,0.00,meteohub,2013-02-21 21:37:00,
2013-02-21 16:38:00,22.8,22.8,30.38,West,270,3.0,8.0,0,0.00,,,0.00,meteohub,2013-02-21 21:38:00,
2013-02-21 16:39:00,22.8,22.8,30.38,West,270,6.0,8.0,0,0.00,,,0.00,meteohub,2013-02-21 21:39:00,
2013-02-21 16:40:00,22.6,22.6,30.38,NW,315,4.0,8.0,0,0.00,,,0.00,meteohub,2013-02-21 21:40:00,
2013-02-21 16:42:00,22.5,22.5,30.38,NW,315,7.0,8.0,0,0.00,,,0.00,meteohub,2013-02-21 21:42:00,
2013-02-21 16:44:00,22.8,22.8,30.38,West,270,2.0,8.0,0,0.00,,,0.00,meteohub,2013-02-21 21:44:00,
2013-02-21 16:46:00,23.0,23.0,30.38,NW,315,4.0,8.0,0,0.00,,,0.00,meteohub,2013-02-21 21:46:00,
2013-02-21 16:48:00,23.2,23.2,30.37,NW,315,6.0,8.0,0,0.00,,,0.00,meteohub,2013-02-21 21:48:00,
2013-02-21 16:51:00,23.0,23.0,30.37,West,270,3.0,7.0,0,0.00,,,0.00,meteohub,2013-02-21 21:51:00,
2013-02-21 16:52:00,23.0,23.0,30.38,NW,315,2.0,7.0,0,0.00,,,0.00,meteohub,2013-02-21 21:52:00,
2013-02-21 16:53:00,23.0,23.0,30.37,NW,315,4.0,7.0,0,0.00,,,0.00,meteohub,2013-02-21 21:53:00,
2013-02-21 16:57:00,22.6,22.6,30.38,West,270,8.0,8.0,0,0.00,,,0.00,meteohub,2013-02-21 21:57:00,
2013-02-21 16:58:00,22.1,22.1,30.38,North,0,3.0,8.0,0,0.00,,,0.00,meteohub,2013-02-21 21:58:00,
2013-02-21 17:02:00,21.4,21.4,30.38,West,270,1.0,8.0,0,0.00,,,0.00,meteohub,2013-02-21 22:02:00,
2013-02-21 17:03:00,21.4,21.4,30.38,West,270,1.0,8.0,0,0.00,,,0.00,meteohub,2013-02-21 22:03:00,
2013-02-21 17:04:00,21.2,21.2,30.38,NW,315,2.0,8.0,0,0.00,,,0.00,meteohub,2013-02-21 22:04:00,
2013-02-21 17:08:00,21.0,21.0,30.38,North,0,2.0,8.0,0,0.00,,,0.00,meteohub,2013-02-21 22:08:00,
2013-02-21 17:09:00,20.8,20.8,30.38,NE,45,4.0,8.0,0,0.00,,,0.00,meteohub,2013-02-21 22:09:00,
2013-02-21 17:10:00,20.8,20.8,30.38,West,270,8.0,8.0,0,0.00,,,0.00,meteohub,2013-02-21 22:10:00,
2013-02-21 17:13:00,20.7,20.7,30.38,WSW,248,3.0,8.0,0,0.00,,,0.00,meteohub,2013-02-21 22:13:00,
2013-02-21 17:15:00,20.7,20.7,30.39,NE,45,2.0,8.0,0,0.00,,,0.00,meteohub,2013-02-21 22:15:00,
2013-02-21 17:18:00,20.3,20.3,30.39,WSW,248,2.0,8.0,0,0.00,,,0.00,meteohub,2013-02-21 22:18:00,
2013-02-21 17:20:00,20.3,20.3,30.39,WSW,248,2.0,8.0,0,0.00,,,0.00,meteohub,2013-02-21 22:20:00,
2013-02-21 17:24:00,20.1,20.1,30.40,WSW,248,5.0,8.0,0,0.00,,,0.00,meteohub,2013-02-21 22:24:00,
2013-02-21 17:25:00,20.1,20.1,30.40,WSW,248,3.0,8.0,0,0.00,,,0.00,meteohub,2013-02-21 22:25:00,
2013-02-21 17:26:00,20.1,20.1,30.40,WSW,248,3.0,8.0,0,0.00,,,0.00,meteohub,2013-02-21 22:26:00,
2013-02-21 17:29:00,19.9,19.9,30.39,NW,315,7.0,8.0,0,0.00,,,0.00,meteohub,2013-02-21 22:29:00,
2013-02-21 17:31:00,19.8,19.8,30.39,West,270,4.0,8.0,0,0.00,,,0.00,meteohub,2013-02-21 22:31:00,
2013-02-21 17:32:00,19.8,19.8,30.39,West,270,4.0,8.0,0,0.00,,,0.00,meteohub,2013-02-21 22:32:00,
2013-02-21 17:34:00,19.6,19.6,30.40,NW,315,5.0,8.0,0,0.00,,,0.00,meteohub,2013-02-21 22:34:00,
2013-02-21 17:37:00,19.4,19.4,30.41,West,270,4.0,8.0,0,0.00,,,0.00,meteohub,2013-02-21 22:37:00,
2013-02-21 17:38:00,19.2,19.2,30.40,West,270,4.0,8.0,0,0.00,,,0.00,meteohub,2013-02-21 22:38:00,
2013-02-21 17:39:00,19.2,19.2,30.40,North,0,6.0,8.0,0,0.00,,,0.00,meteohub,2013-02-21 22:39:00,
2013-02-21 17:42:00,19.0,19.0,30.41,WSW,248,4.0,8.0,0,0.00,,,0.00,meteohub,2013-02-21 22:42:00,
2013-02-21 17:43:00,18.9,18.9,30.41,NE,45,2.0,8.0,0,0.00,,,0.00,meteohub,2013-02-21 22:43:00,
2013-02-21 17:44:00,18.9,18.9,30.41,West,270,3.0,8.0,0,0.00,,,0.00,meteohub,2013-02-21 22:44:00,
2013-02-21 17:48:00,18.5,18.5,30.41,WSW,248,2.0,6.0,0,0.00,,,0.00,meteohub,2013-02-21 22:48:00,
2013-02-21 17:50:00,18.5,18.5,30.42,West,270,2.0,6.0,0,0.00,,,0.00,meteohub,2013-02-21 22:50:00,
2013-02-21 17:53:00,18.3,18.3,30.43,West,270,1.0,6.0,0,0.00,,,0.00,meteohub,2013-02-21 22:53:00,
2013-02-21 17:54:00,18.3,18.3,30.42,South,180,2.0,6.0,0,0.00,,,0.00,meteohub,2013-02-21 22:54:00,
2013-02-21 17:55:00,18.1,18.1,30.43,WSW,248,2.0,6.0,0,0.00,,,0.00,meteohub,2013-02-21 22:55:00,
2013-02-21 17:58:00,18.0,18.0,30.42,WSW,248,2.0,4.0,0,0.00,,,0.00,meteohub,2013-02-21 22:58:00,
2013-02-21 17:59:00,18.0,18.0,30.42,West,270,1.0,4.0,0,0.00,,,0.00,meteohub,2013-02-21 22:59:00,
2013-02-21 18:00:00,18.0,18.0,30.42,West,270,1.0,3.0,0,0.00,,,0.00,meteohub,2013-02-21 23:00:00,
2013-02-21 18:03:00,17.8,17.8,30.42,NW,315,4.0,4.0,0,0.00,,,0.00,meteohub,2013-02-21 23:03:00,
2013-02-21 18:04:00,17.8,17.8,30.43,South,180,2.0,3.0,0,0.00,,,0.00,meteohub,2013-02-21 23:04:00,
2013-02-21 18:06:00,17.6,17.6,30.43,NW,315,2.0,4.0,0,0.00,,,0.00,meteohub,2013-02-21 23:06:00,
2013-02-21 18:08:00,17.6,17.6,30.43,WSW,248,2.0,4.0,0,0.00,,,0.00,meteohub,2013-02-21 23:08:00,
2013-02-21 18:09:00,17.4,17.4,30.43,West,270,2.0,4.0,0,0.00,,,0.00,meteohub,2013-02-21 23:09:00,
2013-02-21 18:10:00,17.4,17.4,30.43,NW,315,2.0,4.0,0,0.00,,,0.00,meteohub,2013-02-21 23:10:00,
2013-02-21 18:11:00,17.4,17.4,30.43,NW,315,2.0,4.0,0,0.00,,,0.00,meteohub,2013-02-21 23:11:00,
2013-02-21 18:13:00,17.4,17.4,30.44,West,270,3.0,4.0,0,0.00,,,0.00,meteohub,2013-02-21 23:13:00,
2013-02-21 18:14:00,17.2,17.2,30.43,WSW,248,1.0,4.0,0,0.00,,,0.00,meteohub,2013-02-21 23:14:00,
2013-02-21 18:16:00,17.2,17.2,30.44,WSW,248,1.0,4.0,0,0.00,,,0.00,meteohub,2013-02-21 23:16:00,
2013-02-21 18:19:00,17.2,17.2,30.44,WSW,248,1.0,4.0,0,0.00,,,0.00,meteohub,2013-02-21 23:19:00,
2013-02-21 18:20:00,17.2,17.2,30.44,WSW,248,1.0,4.0,0,0.00,,,0.00,meteohub,2013-02-21 23:20:00,
2013-02-21 18:22:00,17.2,17.2,30.44,WSW,248,1.0,4.0,0,0.00,,,0.00,meteohub,2013-02-21 23:22:00,
2013-02-21 18:24:00,16.7,16.7,30.44,West,270,2.0,4.0,0,0.00,,,0.00,meteohub,2013-02-21 23:24:00,
2013-02-21 18:26:00,16.7,16.7,30.44,WSW,248,0.0,4.0,0,0.00,,,0.00,meteohub,2013-02-21 23:26:00,
2013-02-21 18:27:00,16.5,16.5,30.44,WSW,248,0.0,4.0,0,0.00,,,0.00,meteohub,2013-02-21 23:27:00,
2013-02-21 18:29:00,16.3,16.3,30.44,South,180,0.0,4.0,0,0.00,,,0.00,meteohub,2013-02-21 23:29:00,
2013-02-21 18:30:00,16.3,16.3,30.44,South,180,0.0,4.0,0,0.00,,,0.00,meteohub,2013-02-21 23:30:00,
2013-02-21 18:31:00,16.3,16.3,30.44,South,180,0.0,2.0,0,0.00,,,0.00,meteohub,2013-02-21 23:31:00,
2013-02-21 18:32:00,16.2,16.2,30.45,North,0,0.0,2.0,0,0.00,,,0.00,meteohub,2013-02-21 23:32:00,
2013-02-21 18:34:00,16.2,16.2,30.44,NW,315,0.0,2.0,0,0.00,,,0.00,meteohub,2013-02-21 23:34:00,
2013-02-21 18:35:00,16.2,16.2,30.44,NW,315,0.0,2.0,0,0.00,,,0.00,meteohub,2013-02-21 23:35:00,
2013-02-21 18:36:00,16.2,16.2,30.44,WSW,248,0.0,2.0,0,0.00,,,0.00,meteohub,2013-02-21 23:36:00,
2013-02-21 18:38:00,16.0,16.0,30.44,WSW,248,0.0,2.0,0,0.00,,,0.00,meteohub,2013-02-21 23:38:00,
2013-02-21 18:39:00,16.0,16.0,30.44,NE,45,0.0,2.0,0,0.00,,,0.00,meteohub,2013-02-21 23:39:00,
2013-02-21 18:40:00,16.0,16.0,30.44,NE,45,0.0,2.0,0,0.00,,,0.00,meteohub,2013-02-21 23:40:00,
2013-02-21 18:41:00,15.8,15.8,30.43,NE,45,0.0,2.0,0,0.00,,,0.00,meteohub,2013-02-21 23:41:00,
2013-02-21 18:44:00,15.6,15.6,30.44,NE,45,0.0,2.0,0,0.00,,,0.00,meteohub,2013-02-21 23:44:00,
2013-02-21 18:45:00,15.6,15.6,30.44,NE,45,0.0,2.0,0,0.00,,,0.00,meteohub,2013-02-21 23:45:00,
2013-02-21 18:46:00,15.6,15.6,30.44,NE,45,0.0,2.0,0,0.00,,,0.00,meteohub,2013-02-21 23:46:00,
2013-02-21 18:47:00,15.6,15.6,30.44,NE,45,0.0,2.0,0,0.00,,,0.00,meteohub,2013-02-21 23:47:00,
2013-02-21 18:49:00,15.4,15.4,30.44,WSW,248,0.0,2.0,0,0.00,,,0.00,meteohub,2013-02-21 23:49:00,
2013-02-21 18:50:00,15.4,15.4,30.45,WSW,248,1.0,1.0,0,0.00,,,0.00,meteohub,2013-02-21 23:50:00,
2013-02-21 18:52:00,15.4,15.4,30.45,WSW,248,0.0,1.0,0,0.00,,,0.00,meteohub,2013-02-21 23:52:00,
2013-02-21 18:55:00,15.4,15.4,30.45,West,270,0.0,1.0,0,0.00,,,0.00,meteohub,2013-02-21 23:55:00,
2013-02-21 18:56:00,15.3,15.3,30.45,West,270,0.0,1.0,0,0.00,,,0.00,meteohub,2013-02-21 23:56:00,
2013-02-21 18:57:00,15.3,15.3,30.45,WSW,248,0.0,1.0,0,0.00,,,0.00,meteohub,2013-02-21 23:57:00,
2013-02-21 19:00:00,15.3,15.3,30.45,NE,45,0.0,1.0,0,0.00,,,0.00,meteohub,2013-02-22 00:00:00,
2013-02-21 19:01:00,15.3,15.3,30.45,NE,45,0.0,1.0,0,0.00,,,0.00,meteohub,2013-02-22 00:01:00,
2013-02-21 19:02:00,15.1,15.1,30.45,NE,45,0.0,1.0,0,0.00,,,0.00,meteohub,2013-02-22 00:02:00,
2013-02-21 19:03:00,15.1,15.1,30.45,NE,45,0.0,1.0,0,0.00,,,0.00,meteohub,2013-02-22 00:03:00,
2013-02-21 19:05:00,15.1,15.1,30.45,NE,45,2.0,2.0,0,0.00,,,0.00,meteohub,2013-02-22 00:05:00,
2013-02-21 19:06:00,15.1,15.1,30.45,NE,45,2.0,2.0,0,0.00,,,0.00,meteohub,2013-02-22 00:06:00,
2013-02-21 19:08:00,15.1,15.1,30.45,North,0,0.0,1.0,0,0.00,,,0.00,meteohub,2013-02-22 00:08:00,
2013-02-21 19:09:00,15.1,15.1,30.45,North,0,1.0,1.0,0,0.00,,,0.00,meteohub,2013-02-22 00:09:00,
2013-02-21 19:11:00,15.1,-31.7,30.45,North,0,1.0,2.0,10,0.00,,,0.00,meteohub,2013-02-22 00:11:00,
2013-02-21 19:12:00,15.1,-31.7,30.45,North,0,2.0,2.0,10,0.00,,,0.00,meteohub,2013-02-22 00:12:00,
2013-02-21 19:14:00,15.1,-30.1,30.44,North,0,2.0,2.0,11,0.00,,,0.00,meteohub,2013-02-22 00:14:00,
2013-02-21 19:17:00,15.1,-28.5,30.44,West,270,0.0,2.0,12,0.00,,,0.00,meteohub,2013-02-22 00:17:00,
2013-02-21 19:19:00,15.3,-28.3,30.45,North,0,2.0,2.0,12,0.00,,,0.00,meteohub,2013-02-22 00:19:00,
2013-02-21 19:22:00,15.3,-28.3,30.45,WSW,248,0.0,2.0,12,0.00,,,0.00,meteohub,2013-02-22 00:22:00,
2013-02-21 19:23:00,15.3,-28.3,30.45,WSW,248,0.0,2.0,12,0.00,,,0.00,meteohub,2013-02-22 00:23:00,
2013-02-21 19:24:00,15.3,-28.3,30.45,WSW,248,0.0,2.0,12,0.00,,,0.00,meteohub,2013-02-22 00:24:00,
2013-02-21 19:25:00,15.3,-29.9,30.45,West,270,0.0,2.0,11,0.00,,,0.00,meteohub,2013-02-22 00:25:00,
2013-02-21 19:28:00,15.1,-30.1,30.44,NW,315,0.0,2.0,11,0.00,,,0.00,meteohub,2013-02-22 00:28:00,
2013-02-21 19:30:00,14.9,-30.1,30.44,North,0,0.0,2.0,11,0.00,,,0.00,meteohub,2013-02-22 00:30:00,
2013-02-21 19:34:00,14.7,-30.3,30.45,NE,45,0.0,2.0,11,0.00,,,0.00,meteohub,2013-02-22 00:34:00,
2013-02-21 19:35:00,14.5,-30.5,30.45,NE,45,0.0,1.0,11,0.00,,,0.00,meteohub,2013-02-22 00:35:00,
2013-02-21 19:37:00,14.5,-30.5,30.45,NE,45,0.0,1.0,11,0.00,,,0.00,meteohub,2013-02-22 00:37:00,
2013-02-21 19:39:00,14.4,-30.6,30.44,NE,45,0.0,1.0,11,0.00,,,0.00,meteohub,2013-02-22 00:39:00,
2013-02-21 19:40:00,14.4,-30.6,30.44,NE,45,0.0,1.0,11,0.00,,,0.00,meteohub,2013-02-22 00:40:00,
2013-02-21 19:41:00,14.4,-30.6,30.45,NE,45,0.0,1.0,11,0.00,,,0.00,meteohub,2013-02-22 00:41:00,
2013-02-21 19:43:00,14.2,-30.8,30.45,NE,45,0.0,1.0,11,0.00,,,0.00,meteohub,2013-02-22 00:43:00,
2013-02-21 19:44:00,14.2,-30.8,30.45,East,90,1.0,1.0,11,0.00,,,0.00,meteohub,2013-02-22 00:44:00,
2013-02-21 19:46:00,14.0,-30.8,30.45,East,90,1.0,1.0,11,0.00,,,0.00,meteohub,2013-02-22 00:46:00,
2013-02-21 19:47:00,14.0,-30.8,30.45,South,180,0.0,1.0,11,0.00,,,0.00,meteohub,2013-02-22 00:47:00,
2013-02-21 19:49:00,14.0,-30.8,30.45,South,180,0.0,1.0,11,0.00,,,0.00,meteohub,2013-02-22 00:49:00,
2013-02-21 19:50:00,14.0,-30.8,30.44,South,180,0.0,1.0,11,0.00,,,0.00,meteohub,2013-02-22 00:50:00,
2013-02-21 19:51:00,14.0,-30.8,30.44,South,180,0.0,1.0,11,0.00,,,0.00,meteohub,2013-02-22 00:51:00,
2013-02-21 19:54:00,14.0,-29.4,30.44,East,90,0.0,1.0,12,0.00,,,0.00,meteohub,2013-02-22 00:54:00,
2013-02-21 19:56:00,14.0,-29.4,30.44,East,90,0.0,1.0,12,0.00,,,0.00,meteohub,2013-02-22 00:56:00,
2013-02-21 19:59:00,14.4,-26.1,30.44,East,90,0.0,1.0,14,0.00,,,0.00,meteohub,2013-02-22 00:59:00,
2013-02-21 20:00:00,14.4,-26.1,30.44,East,90,0.0,1.0,14,0.00,,,0.00,meteohub,2013-02-22 01:00:00,
2013-02-21 20:02:00,14.4,-26.1,30.44,North,0,0.0,1.0,14,0.00,,,0.00,meteohub,2013-02-22 01:02:00,
2013-02-21 20:03:00,14.4,-26.1,30.44,North,0,0.0,1.0,14,0.00,,,0.00,meteohub,2013-02-22 01:03:00,
2013-02-21 20:04:00,14.4,-26.1,30.44,North,0,1.0,1.0,14,0.00,,,0.00,meteohub,2013-02-22 01:04:00,
2013-02-21 20:05:00,14.4,-26.1,30.45,North,0,1.0,1.0,14,0.00,,,0.00,meteohub,2013-02-22 01:05:00,
2013-02-21 20:08:00,14.4,-24.9,30.45,North,0,0.0,0.0,15,0.00,,,0.00,meteohub,2013-02-22 01:08:00,
2013-02-21 20:10:00,14.4,-24.9,30.44,North,0,0.0,2.0,15,0.00,,,0.00,meteohub,2013-02-22 01:10:00,
2013-02-21 20:13:00,14.2,-23.8,30.45,North,0,0.0,2.0,16,0.00,,,0.00,meteohub,2013-02-22 01:13:00,
2013-02-21 20:14:00,14.2,-23.8,30.45,North,0,0.0,2.0,16,0.00,,,0.00,meteohub,2013-02-22 01:14:00,
2013-02-21 20:16:00,14.2,-23.8,30.45,NE,45,1.0,2.0,16,0.00,,,0.00,meteohub,2013-02-22 01:16:00,
2013-02-21 20:18:00,14.2,-23.8,30.45,NE,45,1.0,2.0,16,0.00,,,0.00,meteohub,2013-02-22 01:18:00,
2013-02-21 20:19:00,14.2,-23.8,30.45,NE,45,1.0,2.0,16,0.00,,,0.00,meteohub,2013-02-22 01:19:00,
2013-02-21 20:21:00,14.2,-23.8,30.45,NE,45,1.0,2.0,16,0.00,,,0.00,meteohub,2013-02-22 01:21:00,
2013-02-21 20:22:00,14.2,-23.8,30.45,NE,45,1.0,2.0,16,0.00,,,0.00,meteohub,2013-02-22 01:22:00,
2013-02-21 20:24:00,14.2,-23.8,30.45,South,180,0.0,2.0,16,0.00,,,0.00,meteohub,2013-02-22 01:24:00,
2013-02-21 20:25:00,14.2,-23.8,30.45,South,180,0.0,2.0,16,0.00,,,0.00,meteohub,2013-02-22 01:25:00,
2013-02-21 20:27:00,14.2,-22.7,30.45,South,180,0.0,1.0,17,0.00,,,0.00,meteohub,2013-02-22 01:27:00,
2013-02-21 20:28:00,14.2,-22.7,30.45,South,180,0.0,1.0,17,0.00,,,0.00,meteohub,2013-02-22 01:28:00,
2013-02-21 20:30:00,14.2,-22.7,30.45,South,180,0.0,1.0,17,0.00,,,0.00,meteohub,2013-02-22 01:30:00,
2013-02-21 20:34:00,14.0,-22.7,30.45,South,180,0.0,1.0,17,0.00,,,0.00,meteohub,2013-02-22 01:34:00,
2013-02-21 20:35:00,14.0,-22.7,30.45,South,180,0.0,1.0,17,0.00,,,0.00,meteohub,2013-02-22 01:35:00,
2013-02-21 20:36:00,14.0,-22.7,30.45,South,180,0.0,1.0,17,0.00,,,0.00,meteohub,2013-02-22 01:36:00,
2013-02-21 20:39:00,14.0,-22.7,30.45,South,180,0.0,1.0,17,0.00,,,0.00,meteohub,2013-02-22 01:39:00,
2013-02-21 20:40:00,14.0,-22.7,30.45,South,180,0.0,1.0,17,0.00,,,0.00,meteohub,2013-02-22 01:40:00,
2013-02-21 20:41:00,14.0,-22.7,30.45,South,180,0.0,0.0,17,0.00,,,0.00,meteohub,2013-02-22 01:41:00,
2013-02-21 20:45:00,14.0,-22.7,30.45,NE,45,0.0,0.0,17,0.00,,,0.00,meteohub,2013-02-22 01:45:00,
2013-02-21 20:46:00,14.0,-22.7,30.45,NE,45,0.0,0.0,17,0.00,,,0.00,meteohub,2013-02-22 01:46:00,
2013-02-21 20:47:00,14.2,-22.7,30.45,NE,45,0.0,0.0,17,0.00,,,0.00,meteohub,2013-02-22 01:47:00,
2013-02-21 20:50:00,14.4,-21.5,30.44,East,90,0.0,0.0,18,0.00,,,0.00,meteohub,2013-02-22 01:50:00,
2013-02-21 20:51:00,14.4,-21.5,30.44,East,90,0.0,0.0,18,0.00,,,0.00,meteohub,2013-02-22 01:51:00,
2013-02-21 20:53:00,14.5,-21.3,30.45,East,90,0.0,0.0,18,0.00,,,0.00,meteohub,2013-02-22 01:53:00,
2013-02-21 20:55:00,14.5,-21.3,30.44,East,90,0.0,0.0,18,0.00,,,0.00,meteohub,2013-02-22 01:55:00,
2013-02-21 20:56:00,14.5,-21.3,30.44,East,90,0.0,0.0,18,0.00,,,0.00,meteohub,2013-02-22 01:56:00,
2013-02-21 20:57:00,14.5,-21.3,30.44,East,90,0.0,0.0,18,0.00,,,0.00,meteohub,2013-02-22 01:57:00,
2013-02-21 21:00:00,14.7,-21.1,30.44,East,90,0.0,0.0,18,0.00,,,0.00,meteohub,2013-02-22 02:00:00,
2013-02-21 21:01:00,14.7,-21.1,30.44,East,90,0.0,0.0,18,0.00,,,0.00,meteohub,2013-02-22 02:01:00,
2013-02-21 21:02:00,14.7,-21.1,30.44,East,90,0.0,0.0,18,0.00,,,0.00,meteohub,2013-02-22 02:02:00,
2013-02-21 21:06:00,14.7,-21.1,30.44,East,90,0.0,0.0,18,0.00,,,0.00,meteohub,2013-02-22 02:06:00,
2013-02-21 21:07:00,14.7,-21.1,30.44,East,90,0.0,0.0,18,0.00,,,0.00,meteohub,2013-02-22 02:07:00,
2013-02-21 21:09:00,14.5,-22.4,30.44,East,90,0.0,0.0,17,0.00,,,0.00,meteohub,2013-02-22 02:09:00,
2013-02-21 21:11:00,14.5,-22.4,30.44,North,0,0.0,0.0,17,0.00,,,0.00,meteohub,2013-02-22 02:11:00,
2013-02-21 21:12:00,14.5,-22.4,30.44,North,0,0.0,0.0,17,0.00,,,0.00,meteohub,2013-02-22 02:12:00,
2013-02-21 21:15:00,14.5,-22.4,30.44,North,0,0.0,0.0,17,0.00,,,0.00,meteohub,2013-02-22 02:15:00,
2013-02-21 21:16:00,14.7,-21.1,30.44,North,0,0.0,0.0,18,0.00,,,0.00,meteohub,2013-02-22 02:16:00,
2013-02-21 21:17:00,14.7,-21.1,30.44,North,0,0.0,0.0,18,0.00,,,0.00,meteohub,2013-02-22 02:17:00,
2013-02-21 21:19:00,14.7,-22.2,30.44,North,0,0.0,0.0,17,0.00,,,0.00,meteohub,2013-02-22 02:19:00,
2013-02-21 21:20:00,14.9,-20.9,30.44,North,0,0.0,0.0,18,0.00,,,0.00,meteohub,2013-02-22 02:20:00,
2013-02-21 21:22:00,14.9,-20.9,30.44,North,0,0.0,0.0,18,0.00,,,0.00,meteohub,2013-02-22 02:22:00,
2013-02-21 21:24:00,14.7,-21.1,30.44,South,180,0.0,0.0,18,0.00,,,0.00,meteohub,2013-02-22 02:24:00,
2013-02-21 21:26:00,14.7,-21.1,30.45,WSW,248,0.0,0.0,18,0.00,,,0.00,meteohub,2013-02-22 02:26:00,
2013-02-21 21:27:00,14.7,-22.2,30.45,WSW,248,0.0,0.0,17,0.00,,,0.00,meteohub,2013-02-22 02:27:00,
2013-02-21 21:28:00,14.7,-22.2,30.44,WSW,248,0.0,0.0,17,0.00,,,0.00,meteohub,2013-02-22 02:28:00,
2013-02-21 21:29:00,14.7,-22.2,30.44,WSW,248,0.0,0.0,17,0.00,,,0.00,meteohub,2013-02-22 02:29:00,
2013-02-21 21:31:00,14.7,-22.2,30.44,NE,45,0.0,0.0,17,0.00,,,0.00,meteohub,2013-02-22 02:31:00,
2013-02-21 21:33:00,14.7,-22.2,30.44,East,90,0.0,0.0,17,0.00,,,0.00,meteohub,2013-02-22 02:33:00,
2013-02-21 21:34:00,14.9,-22.0,30.43,North,0,0.0,0.0,17,0.00,,,0.00,meteohub,2013-02-22 02:34:00,
2013-02-21 21:36:00,14.9,-20.9,30.43,North,0,0.0,0.0,18,0.00,,,0.00,meteohub,2013-02-22 02:36:00,
2013-02-21 21:39:00,14.9,-20.9,30.43,North,0,0.0,0.0,18,0.00,,,0.00,meteohub,2013-02-22 02:39:00,
2013-02-21 21:42:00,14.7,-22.2,30.43,North,0,0.0,0.0,17,0.00,,,0.00,meteohub,2013-02-22 02:42:00,
2013-02-21 21:44:00,14.9,-22.0,30.43,North,0,0.0,0.0,17,0.00,,,0.00,meteohub,2013-02-22 02:44:00,
2013-02-21 21:47:00,14.9,-20.9,30.43,North,0,0.0,0.0,18,0.00,,,0.00,meteohub,2013-02-22 02:47:00,
2013-02-21 21:50:00,14.9,-20.9,30.42,North,0,0.0,0.0,18,0.00,,,0.00,meteohub,2013-02-22 02:50:00,
2013-02-21 21:52:00,14.9,-22.0,30.42,North,0,0.0,0.0,17,0.00,,,0.00,meteohub,2013-02-22 02:52:00,
2013-02-21 21:55:00,14.9,-22.0,30.42,East,90,0.0,0.0,17,0.00,,,0.00,meteohub,2013-02-22 02:55:00,
2013-02-21 21:56:00,14.9,-22.0,30.42,East,90,0.0,0.0,17,0.00,,,0.00,meteohub,2013-02-22 02:56:00,
2013-02-21 21:57:00,14.9,-22.0,30.42,East,90,0.0,0.0,17,0.00,,,0.00,meteohub,2013-02-22 02:57:00,
2013-02-21 21:58:00,15.1,-22.0,30.42,East,90,0.0,0.0,17,0.00,,,0.00,meteohub,2013-02-22 02:58:00,
2013-02-21 22:00:00,15.1,-22.0,30.42,East,90,0.0,0.0,17,0.00,,,0.00,meteohub,2013-02-22 03:00:00,
2013-02-21 22:02:00,14.9,-22.0,30.42,East,90,0.0,0.0,17,0.00,,,0.00,meteohub,2013-02-22 03:02:00,
2013-02-21 22:03:00,14.9,-22.0,30.42,East,90,0.0,0.0,17,0.00,,,0.00,meteohub,2013-02-22 03:03:00,
2013-02-21 22:06:00,14.9,-22.0,30.42,North,0,0.0,0.0,17,0.00,,,0.00,meteohub,2013-02-22 03:06:00,
2013-02-21 22:08:00,14.9,-22.0,30.41,North,0,0.0,0.0,17,0.00,,,0.00,meteohub,2013-02-22 03:08:00,
2013-02-21 22:09:00,14.9,-22.0,30.42,North,0,0.0,0.0,17,0.00,,,0.00,meteohub,2013-02-22 03:09:00,
2013-02-21 22:11:00,14.9,-22.0,30.42,North,0,2.0,0.0,17,0.00,,,0.00,meteohub,2013-02-22 03:11:00,
2013-02-21 22:13:00,14.9,-22.0,30.41,North,0,0.0,0.0,17,0.00,,,0.00,meteohub,2013-02-22 03:13:00,
2013-02-21 22:15:00,15.1,-22.0,30.41,NE,45,2.0,2.0,17,0.00,,,0.00,meteohub,2013-02-22 03:15:00,
2013-02-21 22:16:00,15.1,-22.0,30.41,North,0,1.0,2.0,17,0.00,,,0.00,meteohub,2013-02-22 03:16:00,
2013-02-21 22:19:00,15.3,-21.8,30.42,North,0,2.0,2.0,17,0.00,,,0.00,meteohub,2013-02-22 03:19:00,
2013-02-21 22:20:00,15.3,-21.8,30.42,North,0,2.0,2.0,17,0.00,,,0.00,meteohub,2013-02-22 03:20:00,
2013-02-21 22:21:00,15.3,-21.8,30.41,NE,45,1.0,2.0,17,0.00,,,0.00,meteohub,2013-02-22 03:21:00,
2013-02-21 22:22:00,15.3,-21.8,30.42,NE,45,0.0,2.0,17,0.00,,,0.00,meteohub,2013-02-22 03:22:00,
2013-02-21 22:24:00,15.3,-21.8,30.41,East,90,0.0,2.0,17,0.00,,,0.00,meteohub,2013-02-22 03:24:00,
2013-02-21 22:26:00,15.3,-22.9,30.41,SE,135,1.0,2.0,16,0.00,,,0.00,meteohub,2013-02-22 03:26:00,
2013-02-21 22:28:00,15.3,-22.9,30.42,SE,135,0.0,2.0,16,0.00,,,0.00,meteohub,2013-02-22 03:28:00,
2013-02-21 22:30:00,15.3,-22.9,30.41,WSW,248,0.0,2.0,16,0.00,,,0.00,meteohub,2013-02-22 03:30:00,
2013-02-21 22:32:00,15.3,-22.9,30.42,South,180,0.0,2.0,16,0.00,,,0.00,meteohub,2013-02-22 03:32:00,
2013-02-21 22:33:00,15.3,-22.9,30.42,South,180,0.0,2.0,16,0.00,,,0.00,meteohub,2013-02-22 03:33:00,
2013-02-21 22:36:00,15.3,-24.2,30.42,South,180,0.0,2.0,15,0.00,,,0.00,meteohub,2013-02-22 03:36:00,
2013-02-21 22:37:00,15.3,-24.2,30.42,SE,135,0.0,2.0,15,0.00,,,0.00,meteohub,2013-02-22 03:37:00,
2013-02-21 22:39:00,15.3,-24.2,30.42,East,90,0.0,2.0,15,0.00,,,0.00,meteohub,2013-02-22 03:39:00,
2013-02-21 22:41:00,15.4,-24.0,30.42,NE,45,0.0,2.0,15,0.00,,,0.00,meteohub,2013-02-22 03:41:00,
2013-02-21 22:42:00,15.4,-22.7,30.42,East,90,2.0,2.0,16,0.00,,,0.00,meteohub,2013-02-22 03:42:00,
2013-02-21 22:44:00,15.4,-24.0,30.42,East,90,1.0,2.0,15,0.00,,,0.00,meteohub,2013-02-22 03:44:00,
2013-02-21 22:47:00,15.4,-22.7,30.42,East,90,1.0,2.0,16,0.00,,,0.00,meteohub,2013-02-22 03:47:00,
2013-02-21 22:48:00,15.4,-22.7,30.43,SE,135,2.0,2.0,16,0.00,,,0.00,meteohub,2013-02-22 03:48:00,
2013-02-21 22:50:00,15.6,-22.5,30.43,SE,135,1.0,2.0,16,0.00,,,0.00,meteohub,2013-02-22 03:50:00,
2013-02-21 22:52:00,15.6,-23.8,30.43,SE,135,2.0,2.0,15,0.00,,,0.00,meteohub,2013-02-22 03:52:00,
2013-02-21 22:55:00,15.6,-23.8,30.42,SE,135,2.0,2.0,15,0.00,,,0.00,meteohub,2013-02-22 03:55:00,
2013-02-21 22:56:00,15.6,-23.8,30.43,SE,135,1.0,2.0,15,0.00,,,0.00,meteohub,2013-02-22 03:56:00,
2013-02-21 22:58:00,15.6,-23.8,30.42,NE,45,2.0,2.0,15,0.00,,,0.00,meteohub,2013-02-22 03:58:00,
2013-02-21 23:00:00,15.4,-25.2,30.42,East,90,2.0,2.0,14,0.00,,,0.00,meteohub,2013-02-22 04:00:00,
2013-02-21 23:01:00,15.4,-25.2,30.42,East,90,2.0,2.0,14,0.00,,,0.00,meteohub,2013-02-22 04:01:00,
2013-02-21 23:02:00,15.4,-25.2,30.42,East,90,2.0,2.0,14,0.00,,,0.00,meteohub,2013-02-22 04:02:00,
2013-02-21 23:04:00,15.4,-25.2,30.41,East,90,2.0,2.0,14,0.00,,,0.00,meteohub,2013-02-22 04:04:00,
2013-02-21 23:06:00,15.3,-24.2,30.41,East,90,4.0,4.0,15,0.00,,,0.00,meteohub,2013-02-22 04:06:00,
2013-02-21 23:07:00,15.3,-24.2,30.41,East,90,4.0,4.0,15,0.00,,,0.00,meteohub,2013-02-22 04:07:00,
2013-02-21 23:09:00,15.3,-24.2,30.42,East,90,4.0,4.0,15,0.00,,,0.00,meteohub,2013-02-22 04:09:00,
2013-02-21 23:11:00,15.3,-24.2,30.41,East,90,2.0,4.0,15,0.00,,,0.00,meteohub,2013-02-22 04:11:00,
2013-02-21 23:12:00,15.3,-24.2,30.41,East,90,3.0,4.0,15,0.00,,,0.00,meteohub,2013-02-22 04:12:00,
2013-02-21 23:13:00,15.3,-24.2,30.42,SE,135,3.0,4.0,15,0.00,,,0.00,meteohub,2013-02-22 04:13:00,
2013-02-21 23:16:00,15.3,-24.2,30.41,East,90,3.0,4.0,15,0.00,,,0.00,meteohub,2013-02-22 04:16:00,
2013-02-21 23:18:00,15.3,-24.2,30.41,East,90,3.0,4.0,15,0.00,,,0.00,meteohub,2013-02-22 04:18:00,
2013-02-21 23:19:00,15.3,-24.2,30.41,East,90,3.0,4.0,15,0.00,,,0.00,meteohub,2013-02-22 04:19:00,
2013-02-21 23:22:00,15.3,-24.2,30.40,East,90,3.0,4.0,15,0.00,,,0.00,meteohub,2013-02-22 04:22:00,
2013-02-21 23:23:00,15.3,-24.2,30.40,East,90,6.0,6.0,15,0.00,,,0.00,meteohub,2013-02-22 04:23:00,
2013-02-21 23:24:00,15.3,-22.9,30.41,SSE,158,5.0,5.0,16,0.00,,,0.00,meteohub,2013-02-22 04:24:00,
2013-02-21 23:27:00,15.3,-22.9,30.41,SE,135,4.0,6.0,16,0.00,,,0.00,meteohub,2013-02-22 04:27:00,
2013-02-21 23:28:00,15.3,-22.9,30.41,East,90,3.0,6.0,16,0.00,,,0.00,meteohub,2013-02-22 04:28:00,
2013-02-21 23:30:00,15.3,-22.9,30.41,East,90,4.0,6.0,16,0.00,,,0.00,meteohub,2013-02-22 04:30:00,
2013-02-21 23:32:00,15.3,-22.9,30.40,East,90,4.0,6.0,16,0.00,,,0.00,meteohub,2013-02-22 04:32:00,
2013-02-21 23:34:00,15.3,-22.9,30.40,East,90,4.0,6.0,16,0.00,,,0.00,meteohub,2013-02-22 04:34:00,
2013-02-21 23:35:00,15.3,-22.9,30.40,East,90,4.0,6.0,16,0.00,,,0.00,meteohub,2013-02-22 04:35:00,
2013-02-21 23:38:00,15.3,-22.9,30.39,East,90,4.0,6.0,16,0.00,,,0.00,meteohub,2013-02-22 04:38:00,
2013-02-21 23:39:00,15.3,-22.9,30.39,East,90,4.0,6.0,16,0.00,,,0.00,meteohub,2013-02-22 04:39:00,
2013-02-21 23:40:00,15.4,-22.7,30.39,SE,135,4.0,5.0,16,0.00,,,0.00,meteohub,2013-02-22 04:40:00,
2013-02-21 23:43:00,15.4,-22.7,30.40,East,90,5.0,5.0,16,0.00,,,0.00,meteohub,2013-02-22 04:43:00,
2013-02-21 23:44:00,15.4,-22.7,30.40,East,90,4.0,5.0,16,0.00,,,0.00,meteohub,2013-02-22 04:44:00,
2013-02-21 23:45:00,15.4,-22.7,30.40,East,90,5.0,8.0,16,0.00,,,0.00,meteohub,2013-02-22 04:45:00,
2013-02-21 23:48:00,15.4,-24.0,30.39,SE,135,5.0,8.0,15,0.00,,,0.00,meteohub,2013-02-22 04:48:00,
2013-02-21 23:49:00,15.4,-24.0,30.39,SE,135,7.0,8.0,15,0.00,,,0.00,meteohub,2013-02-22 04:49:00,
2013-02-21 23:51:00,15.4,-24.0,30.39,SE,135,6.0,8.0,15,0.00,,,0.00,meteohub,2013-02-22 04:51:00,
2013-02-21 23:53:00,15.3,-24.2,30.38,East,90,8.0,8.0,15,0.00,,,0.00,meteohub,2013-02-22 04:53:00,
2013-02-21 23:54:00,15.3,-24.2,30.38,SE,135,5.0,8.0,15,0.00,,,0.00,meteohub,2013-02-22 04:54:00,
2013-02-21 23:55:00,15.3,-24.2,30.38,East,90,8.0,8.0,15,0.00,,,0.00,meteohub,2013-02-22 04:55:00,
2013-02-21 23:56:00,15.3,-24.2,30.39,East,90,5.0,8.0,15,0.00,,,0.00,meteohub,2013-02-22 04:56:00,
2013-02-21 23:59:00,15.1,-24.3,30.39,East,90,8.0,8.0,15,0.00,,,0.00,meteohub,2013-02-22 04:59:00,